Time,TemperatureF,DewpointF,PressureIn,WindDirection,WindDirectionDegrees,WindSpeedMPH,WindSpeedGustMPH,Humidity,HourlyPrecipIn,Conditions,Clouds,dailyrainin,SoftwareType,DateUTC
2013-07-12 00:00:00,68.2,37.8,29.74,WSW,248,10.3,15.2,33,0.00,,,0.00,WUHU216HW,2013-07-12 06:00:00,
2013-07-12 00:01:00,68.0,38.4,29.74,WSW,248,8.9,12.5,34,0.00,,,0.00,WUHU216HW,2013-07-12 06:01:00,
2013-07-12 00:03:00,67.7,38.9,29.74,SW,225,12.1,13.4,35,0.00,,,0.00,WUHU216HW,2013-07-12 06:03:00,
2013-07-12 00:04:00,67.5,38.7,29.74,SW,225,10.5,13.4,35,0.00,,,0.00,WUHU216HW,2013-07-12 06:04:00,
2013-07-12 00:05:00,67.3,38.5,29.74,SW,225,10.1,13.4,35,0.00,,,0.00,WUHU216HW,2013-07-12 06:05:00,
2013-07-12 00:06:00,67.3,39.2,29.74,WSW,248,10.5,13.4,36,0.00,,,0.00,WUHU216HW,2013-07-12 06:06:00,
2013-07-12 00:08:00,67.0,39.0,29.74,WSW,248,7.6,13.4,36,0.00,,,0.00,WUHU216HW,2013-07-12 06:08:00,
2013-07-12 00:09:00,66.8,38.8,29.74,WSW,248,5.8,13.4,36,0.00,,,0.00,WUHU216HW,2013-07-12 06:09:00,
2013-07-12 00:10:00,66.6,38.6,29.74,WSW,248,4.7,13.4,36,0.00,,,0.00,WUHU216HW,2013-07-12 06:10:00,
2013-07-12 00:11:00,66.6,38.6,29.74,SW,225,4.0,13.4,36,0.00,,,0.00,WUHU216HW,2013-07-12 06:11:00,
2013-07-12 00:13:00,66.4,38.5,29.74,WSW,248,5.6,13.2,36,0.00,,,0.00,WUHU216HW,2013-07-12 06:13:00,
2013-07-12 00:14:00,66.4,38.5,29.74,WSW,248,4.7,11.6,36,0.00,,,0.00,WUHU216HW,2013-07-12 06:14:00,
2013-07-12 00:15:00,66.2,38.3,29.74,SW,225,2.2,11.6,36,0.00,,,0.00,WUHU216HW,2013-07-12 06:15:00,
2013-07-12 00:16:00,66.2,38.3,29.74,SW,225,4.0,10.1,36,0.00,,,0.00,WUHU216HW,2013-07-12 06:16:00,
2013-07-12 00:19:00,66.1,38.9,29.75,SW,225,4.9,6.3,37,0.00,,,0.00,WUHU216HW,2013-07-12 06:19:00,
2013-07-12 00:20:00,65.9,38.7,29.75,SSW,203,4.9,6.3,37,0.00,,,0.00,WUHU216HW,2013-07-12 06:20:00,
2013-07-12 00:21:00,65.9,38.7,29.75,South,180,5.6,6.3,37,0.00,,,0.00,WUHU216HW,2013-07-12 06:21:00,
2013-07-12 00:22:00,65.9,38.7,29.75,South,180,4.5,6.3,37,0.00,,,0.00,WUHU216HW,2013-07-12 06:22:00,
2013-07-12 00:24:00,65.7,40.8,29.75,SE,135,3.8,8.3,40,0.00,,,0.00,WUHU216HW,2013-07-12 06:24:00,
2013-07-12 00:25:00,65.5,40.6,29.75,SSE,158,4.7,8.3,40,0.00,,,0.00,WUHU216HW,2013-07-12 06:25:00,
2013-07-12 00:26:00,65.5,41.8,29.75,ESE,113,6.3,8.3,42,0.00,,,0.00,WUHU216HW,2013-07-12 06:26:00,
2013-07-12 00:27:00,65.3,42.2,29.75,ESE,113,6.3,8.3,43,0.00,,,0.00,WUHU216HW,2013-07-12 06:27:00,
2013-07-12 00:29:00,65.0,43.0,29.76,ESE,113,8.5,9.2,45,0.00,,,0.00,WUHU216HW,2013-07-12 06:29:00,
2013-07-12 00:30:00,64.8,42.2,29.76,East,90,6.0,9.2,44,0.00,,,0.00,WUHU216HW,2013-07-12 06:30:00,
2013-07-12 00:31:00,64.8,42.2,29.76,ESE,113,8.5,9.2,44,0.00,,,0.00,WUHU216HW,2013-07-12 06:31:00,
2013-07-12 00:32:00,64.6,42.7,29.76,ESE,113,5.8,9.2,45,0.00,,,0.00,WUHU216HW,2013-07-12 06:32:00,
2013-07-12 00:34:00,64.4,42.5,29.75,SE,135,6.0,9.2,45,0.00,,,0.00,WUHU216HW,2013-07-12 06:34:00,
2013-07-12 00:35:00,64.3,42.9,29.76,SE,135,4.0,9.2,46,0.00,,,0.00,WUHU216HW,2013-07-12 06:35:00,
2013-07-12 00:36:00,64.1,42.1,29.76,SSE,158,3.4,9.2,45,0.00,,,0.00,WUHU216HW,2013-07-12 06:36:00,
2013-07-12 00:37:00,64.1,42.8,29.76,ESE,113,4.7,9.2,46,0.00,,,0.00,WUHU216HW,2013-07-12 06:37:00,
2013-07-12 00:39:00,63.9,42.0,29.76,East,90,3.4,8.5,45,0.00,,,0.00,WUHU216HW,2013-07-12 06:39:00,
2013-07-12 00:40:00,63.9,42.0,29.76,ESE,113,2.5,8.5,45,0.00,,,0.00,WUHU216HW,2013-07-12 06:40:00,
2013-07-12 00:42:00,63.7,41.9,29.76,ESE,113,0.4,6.0,45,0.00,,,0.00,WUHU216HW,2013-07-12 06:42:00,
2013-07-12 00:45:00,63.5,41.1,29.76,SW,225,2.7,5.1,44,0.00,,,0.00,WUHU216HW,2013-07-12 06:45:00,
2013-07-12 00:47:00,63.4,41.5,29.76,SW,225,2.9,5.1,45,0.00,,,0.00,WUHU216HW,2013-07-12 06:47:00,
2013-07-12 00:48:00,63.4,41.5,29.76,SW,225,3.4,4.0,45,0.00,,,0.00,WUHU216HW,2013-07-12 06:48:00,
2013-07-12 00:50:00,63.2,42.0,29.76,WSW,248,5.1,5.1,46,0.00,,,0.00,WUHU216HW,2013-07-12 06:50:00,
2013-07-12 00:52:00,63.0,42.3,29.76,WSW,248,4.3,5.4,47,0.00,,,0.00,WUHU216HW,2013-07-12 06:52:00,
2013-07-12 00:53:00,62.8,42.2,29.75,WSW,248,3.4,5.4,47,0.00,,,0.00,WUHU216HW,2013-07-12 06:53:00,
2013-07-12 00:55:00,62.5,41.3,29.76,SW,225,0.4,5.4,46,0.00,,,0.00,WUHU216HW,2013-07-12 06:55:00,
2013-07-12 00:56:00,62.3,41.7,29.76,SW,225,1.1,5.4,47,0.00,,,0.00,WUHU216HW,2013-07-12 06:56:00,
2013-07-12 00:57:00,62.3,41.7,29.76,WSW,248,2.5,5.4,47,0.00,,,0.00,WUHU216HW,2013-07-12 06:57:00,
2013-07-12 00:58:00,62.3,41.7,29.76,West,270,2.5,5.4,47,0.00,,,0.00,WUHU216HW,2013-07-12 06:58:00,
2013-07-12 01:00:00,61.9,41.9,29.76,WSW,248,7.6,7.6,48,0.00,,,0.00,WUHU216HW,2013-07-12 07:00:00,
2013-07-12 01:01:00,61.7,42.4,29.76,WSW,248,6.5,7.6,49,0.00,,,0.00,WUHU216HW,2013-07-12 07:01:00,
2013-07-12 01:02:00,61.6,42.2,29.76,WSW,248,3.4,7.6,49,0.00,,,0.00,WUHU216HW,2013-07-12 07:02:00,
2013-07-12 01:03:00,61.6,42.2,29.76,WSW,248,2.5,7.6,49,0.00,,,0.00,WUHU216HW,2013-07-12 07:03:00,
2013-07-12 01:05:00,61.6,41.6,29.75,WSW,248,0.9,7.6,48,0.00,,,0.00,WUHU216HW,2013-07-12 07:05:00,
2013-07-12 01:06:00,61.6,41.6,29.75,West,270,0.7,7.6,48,0.00,,,0.00,WUHU216HW,2013-07-12 07:06:00,
2013-07-12 01:07:00,61.6,41.6,29.75,West,270,0.2,7.6,48,0.00,,,0.00,WUHU216HW,2013-07-12 07:07:00,
2013-07-12 01:08:00,61.6,41.6,29.75,West,270,0.0,7.6,48,0.00,,,0.00,WUHU216HW,2013-07-12 07:08:00,
2013-07-12 01:10:00,61.9,42.5,29.75,West,270,6.3,7.6,49,0.00,,,0.00,WUHU216HW,2013-07-12 07:10:00,
2013-07-12 01:11:00,61.9,41.9,29.76,West,270,5.4,7.6,48,0.00,,,0.00,WUHU216HW,2013-07-12 07:11:00,
2013-07-12 01:12:00,61.9,42.5,29.75,West,270,5.4,7.6,49,0.00,,,0.00,WUHU216HW,2013-07-12 07:12:00,
2013-07-12 01:13:00,61.9,42.5,29.75,West,270,5.1,7.6,49,0.00,,,0.00,WUHU216HW,2013-07-12 07:13:00,
2013-07-12 01:15:00,61.7,42.4,29.75,WNW,293,2.5,7.6,49,0.00,,,0.00,WUHU216HW,2013-07-12 07:15:00,
2013-07-12 01:17:00,61.7,42.4,29.76,West,270,4.5,7.6,49,0.00,,,0.00,WUHU216HW,2013-07-12 07:17:00,
2013-07-12 01:18:00,61.7,42.4,29.76,West,270,5.4,7.6,49,0.00,,,0.00,WUHU216HW,2013-07-12 07:18:00,
2013-07-12 01:20:00,61.6,42.2,29.75,West,270,6.0,6.3,49,0.00,,,0.00,WUHU216HW,2013-07-12 07:20:00,
2013-07-12 01:22:00,61.6,42.8,29.75,West,270,5.4,6.3,50,0.00,,,0.00,WUHU216HW,2013-07-12 07:22:00,
2013-07-12 01:23:00,61.4,42.6,29.75,WSW,248,5.4,6.3,50,0.00,,,0.00,WUHU216HW,2013-07-12 07:23:00,
2013-07-12 01:25:00,61.2,41.9,29.75,WSW,248,1.6,6.3,49,0.00,,,0.00,WUHU216HW,2013-07-12 07:25:00,
2013-07-12 01:28:00,61.0,42.3,29.75,West,270,4.5,6.3,50,0.00,,,0.00,WUHU216HW,2013-07-12 07:28:00,
2013-07-12 01:30:00,60.8,41.0,29.75,West,270,1.3,6.3,48,0.00,,,0.00,WUHU216HW,2013-07-12 07:30:00,
2013-07-12 01:33:00,61.0,41.1,29.75,WSW,248,4.5,5.6,48,0.00,,,0.00,WUHU216HW,2013-07-12 07:33:00,
2013-07-12 01:36:00,60.8,41.0,29.75,WSW,248,4.7,6.9,48,0.00,,,0.00,WUHU216HW,2013-07-12 07:36:00,
2013-07-12 01:38:00,60.5,40.7,29.75,WSW,248,7.4,7.6,48,0.00,,,0.00,WUHU216HW,2013-07-12 07:38:00,
2013-07-12 01:39:00,60.5,40.7,29.75,WSW,248,6.3,7.8,48,0.00,,,0.00,WUHU216HW,2013-07-12 07:39:00,
2013-07-12 01:41:00,60.3,40.5,29.75,WSW,248,3.4,7.8,48,0.00,,,0.00,WUHU216HW,2013-07-12 07:41:00,
2013-07-12 01:43:00,60.1,40.3,29.76,WSW,248,4.7,7.8,48,0.00,,,0.00,WUHU216HW,2013-07-12 07:43:00,
2013-07-12 01:44:00,60.1,40.3,29.75,SW,225,3.4,7.8,48,0.00,,,0.00,WUHU216HW,2013-07-12 07:44:00,
2013-07-12 01:46:00,60.1,39.8,29.75,SW,225,2.5,7.8,47,0.00,,,0.00,WUHU216HW,2013-07-12 07:46:00,
2013-07-12 01:48:00,60.1,39.8,29.75,WSW,248,2.9,7.8,47,0.00,,,0.00,WUHU216HW,2013-07-12 07:48:00,
2013-07-12 01:49:00,60.1,39.8,29.75,West,270,3.1,6.3,47,0.00,,,0.00,WUHU216HW,2013-07-12 07:49:00,
2013-07-12 01:51:00,59.9,40.1,29.75,West,270,2.5,5.4,48,0.00,,,0.00,WUHU216HW,2013-07-12 07:51:00,
2013-07-12 01:53:00,59.9,39.6,29.75,WSW,248,2.2,4.7,47,0.00,,,0.00,WUHU216HW,2013-07-12 07:53:00,
2013-07-12 01:54:00,59.8,39.4,29.75,WSW,248,2.0,3.8,47,0.00,,,0.00,WUHU216HW,2013-07-12 07:54:00,
2013-07-12 01:56:00,59.8,39.4,29.75,WSW,248,1.1,3.8,47,0.00,,,0.00,WUHU216HW,2013-07-12 07:56:00,
2013-07-12 01:58:00,59.6,39.2,29.75,SW,225,2.9,3.8,47,0.00,,,0.00,WUHU216HW,2013-07-12 07:58:00,
2013-07-12 01:59:00,59.6,39.2,29.75,SW,225,2.9,3.8,47,0.00,,,0.00,WUHU216HW,2013-07-12 07:59:00,
2013-07-12 02:00:00,59.6,39.2,29.75,SW,225,3.4,3.4,47,0.00,,,0.00,WUHU216HW,2013-07-12 08:00:00,
2013-07-12 02:01:00,59.6,39.9,29.75,SW,225,2.7,3.4,48,0.00,,,0.00,WUHU216HW,2013-07-12 08:01:00,
2013-07-12 02:03:00,59.4,39.7,29.75,WSW,248,3.6,3.6,48,0.00,,,0.00,WUHU216HW,2013-07-12 08:03:00,
2013-07-12 02:04:00,59.4,39.1,29.75,WSW,248,4.0,4.0,47,0.00,,,0.00,WUHU216HW,2013-07-12 08:04:00,
2013-07-12 02:05:00,59.4,39.7,29.75,WSW,248,3.1,4.0,48,0.00,,,0.00,WUHU216HW,2013-07-12 08:05:00,
2013-07-12 02:07:00,59.4,39.7,29.75,West,270,4.0,4.0,48,0.00,,,0.00,WUHU216HW,2013-07-12 08:07:00,
2013-07-12 02:08:00,59.2,40.1,29.75,West,270,5.1,5.4,49,0.00,,,0.00,WUHU216HW,2013-07-12 08:08:00,
2013-07-12 02:09:00,59.2,40.1,29.75,West,270,5.4,5.4,49,0.00,,,0.00,WUHU216HW,2013-07-12 08:09:00,
2013-07-12 02:10:00,59.0,40.0,29.75,West,270,5.4,5.4,49,0.00,,,0.00,WUHU216HW,2013-07-12 08:10:00,
2013-07-12 02:12:00,58.9,39.8,29.75,West,270,0.2,5.4,49,0.00,,,0.00,WUHU216HW,2013-07-12 08:12:00,
2013-07-12 02:13:00,58.9,39.8,29.75,WSW,248,0.2,5.4,49,0.00,,,0.00,WUHU216HW,2013-07-12 08:13:00,
2013-07-12 02:14:00,59.0,40.0,29.75,WSW,248,0.4,5.4,49,0.00,,,0.00,WUHU216HW,2013-07-12 08:14:00,
2013-07-12 02:16:00,59.2,40.1,29.75,WSW,248,3.8,5.4,49,0.00,,,0.00,WUHU216HW,2013-07-12 08:16:00,
2013-07-12 02:17:00,59.4,40.2,29.75,WSW,248,4.0,5.4,49,0.00,,,0.00,WUHU216HW,2013-07-12 08:17:00,
2013-07-12 02:19:00,59.4,40.9,29.76,West,270,4.9,5.8,50,0.00,,,0.00,WUHU216HW,2013-07-12 08:19:00,
2013-07-12 02:20:00,59.4,40.2,29.76,WSW,248,3.6,5.8,49,0.00,,,0.00,WUHU216HW,2013-07-12 08:20:00,
2013-07-12 02:22:00,59.0,40.0,29.75,SW,225,1.8,5.8,49,0.00,,,0.00,WUHU216HW,2013-07-12 08:22:00,
2013-07-12 02:23:00,59.0,40.0,29.75,SW,225,1.8,5.8,49,0.00,,,0.00,WUHU216HW,2013-07-12 08:23:00,
2013-07-12 02:24:00,59.0,40.0,29.76,WSW,248,2.5,5.8,49,0.00,,,0.00,WUHU216HW,2013-07-12 08:24:00,
2013-07-12 02:25:00,59.0,40.0,29.76,WSW,248,2.5,5.8,49,0.00,,,0.00,WUHU216HW,2013-07-12 08:25:00,
2013-07-12 02:27:00,58.9,39.8,29.76,WSW,248,1.1,5.8,49,0.00,,,0.00,WUHU216HW,2013-07-12 08:27:00,
2013-07-12 02:28:00,58.9,39.8,29.76,WSW,248,0.4,5.8,49,0.00,,,0.00,WUHU216HW,2013-07-12 08:28:00,
2013-07-12 02:29:00,58.9,41.3,29.76,NE,45,4.7,4.7,52,0.00,,,0.00,WUHU216HW,2013-07-12 08:29:00,
2013-07-12 02:30:00,58.7,41.6,29.76,NE,45,4.7,5.1,53,0.00,,,0.00,WUHU216HW,2013-07-12 08:30:00,
2013-07-12 02:32:00,58.3,42.2,29.76,North,0,1.8,5.1,55,0.00,,,0.00,WUHU216HW,2013-07-12 08:32:00,
2013-07-12 02:33:00,58.3,42.2,29.76,North,0,1.8,5.1,55,0.00,,,0.00,WUHU216HW,2013-07-12 08:33:00,
2013-07-12 02:34:00,58.1,41.6,29.76,North,0,1.1,5.1,54,0.00,,,0.00,WUHU216HW,2013-07-12 08:34:00,
2013-07-12 02:35:00,58.1,41.6,29.76,North,0,0.9,5.1,54,0.00,,,0.00,WUHU216HW,2013-07-12 08:35:00,
2013-07-12 02:36:00,58.1,42.0,29.76,NE,45,2.7,5.1,55,0.00,,,0.00,WUHU216HW,2013-07-12 08:36:00,
2013-07-12 02:37:00,58.1,42.5,29.76,ENE,68,2.2,5.1,56,0.00,,,0.00,WUHU216HW,2013-07-12 08:37:00,
2013-07-12 02:38:00,58.1,42.5,29.76,NE,45,2.5,5.1,56,0.00,,,0.00,WUHU216HW,2013-07-12 08:38:00,
2013-07-12 02:39:00,58.3,42.2,29.76,ENE,68,2.2,5.1,55,0.00,,,0.00,WUHU216HW,2013-07-12 08:39:00,
2013-07-12 02:40:00,58.3,42.2,29.76,ENE,68,1.8,4.7,55,0.00,,,0.00,WUHU216HW,2013-07-12 08:40:00,
2013-07-12 02:41:00,58.3,42.2,29.76,ESE,113,1.8,3.1,55,0.00,,,0.00,WUHU216HW,2013-07-12 08:41:00,
2013-07-12 02:42:00,58.5,41.9,29.76,SSW,203,2.5,3.1,54,0.00,,,0.00,WUHU216HW,2013-07-12 08:42:00,
2013-07-12 02:43:00,58.5,41.9,29.76,SSW,203,2.5,3.1,54,0.00,,,0.00,WUHU216HW,2013-07-12 08:43:00,
2013-07-12 02:44:00,58.5,41.4,29.76,SE,135,2.0,3.6,53,0.00,,,0.00,WUHU216HW,2013-07-12 08:44:00,
2013-07-12 02:45:00,58.5,41.4,29.76,SE,135,2.2,3.6,53,0.00,,,0.00,WUHU216HW,2013-07-12 08:45:00,
2013-07-12 02:46:00,58.3,41.2,29.76,ESE,113,3.1,3.6,53,0.00,,,0.00,WUHU216HW,2013-07-12 08:46:00,
2013-07-12 02:48:00,58.3,40.8,29.76,SE,135,0.7,3.6,52,0.00,,,0.00,WUHU216HW,2013-07-12 08:48:00,
2013-07-12 02:50:00,58.1,40.6,29.76,SW,225,2.0,3.6,52,0.00,,,0.00,WUHU216HW,2013-07-12 08:50:00,
2013-07-12 02:53:00,58.0,40.5,29.76,SSW,203,3.8,4.0,52,0.00,,,0.00,WUHU216HW,2013-07-12 08:53:00,
2013-07-12 02:54:00,57.8,40.3,29.76,SE,135,3.1,4.0,52,0.00,,,0.00,WUHU216HW,2013-07-12 08:54:00,
2013-07-12 02:55:00,57.8,40.8,29.76,SE,135,3.4,4.0,53,0.00,,,0.00,WUHU216HW,2013-07-12 08:55:00,
2013-07-12 02:58:00,57.4,41.0,29.76,SSE,158,2.2,4.0,54,0.00,,,0.00,WUHU216HW,2013-07-12 08:58:00,
2013-07-12 02:59:00,57.4,41.0,29.76,South,180,1.8,4.0,54,0.00,,,0.00,WUHU216HW,2013-07-12 08:59:00,
2013-07-12 03:00:00,57.4,41.0,29.77,SW,225,3.8,4.0,54,0.00,,,0.00,WUHU216HW,2013-07-12 09:00:00,
2013-07-12 03:01:00,57.4,41.0,29.77,SW,225,2.9,4.0,54,0.00,,,0.00,WUHU216HW,2013-07-12 09:01:00,
2013-07-12 03:03:00,57.2,40.8,29.76,SW,225,2.5,3.8,54,0.00,,,0.00,WUHU216HW,2013-07-12 09:03:00,
2013-07-12 03:04:00,57.2,40.8,29.76,SW,225,3.1,3.8,54,0.00,,,0.00,WUHU216HW,2013-07-12 09:04:00,
2013-07-12 03:06:00,57.1,40.6,29.76,SW,225,4.0,4.0,54,0.00,,,0.00,WUHU216HW,2013-07-12 09:06:00,
2013-07-12 03:08:00,56.9,40.4,29.76,SSW,203,2.5,4.0,54,0.00,,,0.00,WUHU216HW,2013-07-12 09:08:00,
2013-07-12 03:09:00,56.7,40.2,29.76,SE,135,3.6,4.0,54,0.00,,,0.00,WUHU216HW,2013-07-12 09:09:00,
2013-07-12 03:11:00,56.5,40.1,29.76,SE,135,6.0,6.0,54,0.00,,,0.00,WUHU216HW,2013-07-12 09:11:00,
2013-07-12 03:13:00,56.5,40.5,29.76,SSW,203,3.6,6.3,55,0.00,,,0.00,WUHU216HW,2013-07-12 09:13:00,
2013-07-12 03:14:00,56.5,40.5,29.76,SW,225,2.7,6.3,55,0.00,,,0.00,WUHU216HW,2013-07-12 09:14:00,
2013-07-12 03:16:00,56.5,40.5,29.76,SW,225,2.9,6.3,55,0.00,,,0.00,WUHU216HW,2013-07-12 09:16:00,
2013-07-12 03:17:00,56.5,40.5,29.76,SW,225,2.9,6.3,55,0.00,,,0.00,WUHU216HW,2013-07-12 09:17:00,
2013-07-12 03:19:00,56.3,40.3,29.76,SSE,158,1.6,6.3,55,0.00,,,0.00,WUHU216HW,2013-07-12 09:19:00,
2013-07-12 03:21:00,56.2,40.6,29.76,SW,225,1.3,6.3,56,0.00,,,0.00,WUHU216HW,2013-07-12 09:21:00,
2013-07-12 03:22:00,56.2,40.6,29.76,SW,225,1.8,6.3,56,0.00,,,0.00,WUHU216HW,2013-07-12 09:22:00,
2013-07-12 03:24:00,56.2,41.0,29.76,WSW,248,3.6,4.0,57,0.00,,,0.00,WUHU216HW,2013-07-12 09:24:00,
2013-07-12 03:26:00,55.8,40.7,29.76,South,180,1.6,3.8,57,0.00,,,0.00,WUHU216HW,2013-07-12 09:26:00,
2013-07-12 03:27:00,55.8,40.7,29.76,SE,135,2.0,3.8,57,0.00,,,0.00,WUHU216HW,2013-07-12 09:27:00,
2013-07-12 03:29:00,55.8,40.7,29.76,WSW,248,3.4,3.8,57,0.00,,,0.00,WUHU216HW,2013-07-12 09:29:00,
2013-07-12 03:31:00,55.6,41.9,29.76,West,270,4.7,6.0,60,0.00,,,0.00,WUHU216HW,2013-07-12 09:31:00,
2013-07-12 03:32:00,55.4,41.3,29.76,West,270,4.0,6.0,59,0.00,,,0.00,WUHU216HW,2013-07-12 09:32:00,
2013-07-12 03:34:00,55.1,41.0,29.76,West,270,2.9,6.0,59,0.00,,,0.00,WUHU216HW,2013-07-12 09:34:00,
2013-07-12 03:35:00,54.9,40.8,29.76,West,270,3.6,6.0,59,0.00,,,0.00,WUHU216HW,2013-07-12 09:35:00,
2013-07-12 03:36:00,54.9,41.3,29.76,West,270,5.4,6.0,60,0.00,,,0.00,WUHU216HW,2013-07-12 09:36:00,
2013-07-12 03:37:00,54.7,41.5,29.76,West,270,6.7,6.7,61,0.00,,,0.00,WUHU216HW,2013-07-12 09:37:00,
2013-07-12 03:39:00,54.5,40.5,29.76,West,270,6.3,6.9,59,0.00,,,0.00,WUHU216HW,2013-07-12 09:39:00,
2013-07-12 03:40:00,54.4,40.3,29.76,WSW,248,6.3,6.9,59,0.00,,,0.00,WUHU216HW,2013-07-12 09:40:00,
2013-07-12 03:42:00,54.4,40.8,29.76,WSW,248,5.4,6.9,60,0.00,,,0.00,WUHU216HW,2013-07-12 09:42:00,
2013-07-12 03:45:00,54.4,41.2,29.76,West,270,7.4,7.4,61,0.00,,,0.00,WUHU216HW,2013-07-12 09:45:00,
2013-07-12 03:47:00,54.4,42.0,29.76,WSW,248,3.4,7.4,63,0.00,,,0.00,WUHU216HW,2013-07-12 09:47:00,
2013-07-12 03:48:00,54.4,42.0,29.76,WSW,248,3.4,7.4,63,0.00,,,0.00,WUHU216HW,2013-07-12 09:48:00,
2013-07-12 03:50:00,54.4,41.6,29.76,West,270,4.7,7.4,62,0.00,,,0.00,WUHU216HW,2013-07-12 09:50:00,
2013-07-12 03:53:00,54.4,43.2,29.76,West,270,2.7,7.4,66,0.00,,,0.00,WUHU216HW,2013-07-12 09:53:00,
2013-07-12 03:55:00,54.4,42.4,29.76,WNW,293,4.3,6.5,64,0.00,,,0.00,WUHU216HW,2013-07-12 09:55:00,
2013-07-12 03:56:00,54.4,42.9,29.76,WNW,293,4.3,5.8,65,0.00,,,0.00,WUHU216HW,2013-07-12 09:56:00,
2013-07-12 03:58:00,54.7,43.1,29.76,NW,315,4.0,5.1,65,0.00,,,0.00,WUHU216HW,2013-07-12 09:58:00,
2013-07-12 04:00:00,54.9,42.5,29.77,WNW,293,2.5,5.6,63,0.00,,,0.00,WUHU216HW,2013-07-12 10:00:00,
2013-07-12 04:01:00,55.1,42.7,29.77,West,270,1.6,5.6,63,0.00,,,0.00,WUHU216HW,2013-07-12 10:01:00,
2013-07-12 04:03:00,55.1,42.3,29.76,NW,315,2.9,5.6,62,0.00,,,0.00,WUHU216HW,2013-07-12 10:03:00,
2013-07-12 04:05:00,55.3,42.4,29.77,WNW,293,3.8,5.6,62,0.00,,,0.00,WUHU216HW,2013-07-12 10:05:00,
2013-07-12 04:06:00,55.3,42.4,29.77,WNW,293,3.4,5.6,62,0.00,,,0.00,WUHU216HW,2013-07-12 10:06:00,
2013-07-12 04:08:00,55.3,42.9,29.77,NW,315,1.6,5.6,63,0.00,,,0.00,WUHU216HW,2013-07-12 10:08:00,
2013-07-12 04:09:00,55.3,42.9,29.77,NW,315,1.6,5.4,63,0.00,,,0.00,WUHU216HW,2013-07-12 10:09:00,
2013-07-12 04:10:00,55.4,43.0,29.77,WNW,293,2.5,3.8,63,0.00,,,0.00,WUHU216HW,2013-07-12 10:10:00,
2013-07-12 04:11:00,55.4,43.0,29.77,WNW,293,2.5,3.8,63,0.00,,,0.00,WUHU216HW,2013-07-12 10:11:00,
2013-07-12 04:13:00,55.4,43.0,29.77,WNW,293,1.8,3.8,63,0.00,,,0.00,WUHU216HW,2013-07-12 10:13:00,
2013-07-12 04:14:00,55.3,42.9,29.77,West,270,1.3,3.8,63,0.00,,,0.00,WUHU216HW,2013-07-12 10:14:00,
2013-07-12 04:16:00,55.3,42.4,29.76,West,270,1.1,3.4,62,0.00,,,0.00,WUHU216HW,2013-07-12 10:16:00,
2013-07-12 04:19:00,55.1,42.7,29.76,NNW,338,2.0,2.7,63,0.00,,,0.00,WUHU216HW,2013-07-12 10:19:00,
2013-07-12 04:21:00,54.7,42.3,29.76,NW,315,1.1,2.7,63,0.00,,,0.00,WUHU216HW,2013-07-12 10:21:00,
2013-07-12 04:24:00,54.5,41.8,29.76,West,270,0.2,2.0,62,0.00,,,0.00,WUHU216HW,2013-07-12 10:24:00,
2013-07-12 04:26:00,54.4,41.6,29.76,West,270,0.0,2.0,62,0.00,,,0.00,WUHU216HW,2013-07-12 10:26:00,
2013-07-12 04:29:00,54.2,41.9,29.76,WNW,293,2.2,2.5,63,0.00,,,0.00,WUHU216HW,2013-07-12 10:29:00,
2013-07-12 04:31:00,54.0,41.7,29.77,NW,315,1.6,2.5,63,0.00,,,0.00,WUHU216HW,2013-07-12 10:31:00,
2013-07-12 04:34:00,54.2,44.3,29.77,North,0,1.6,2.5,69,0.00,,,0.00,WUHU216HW,2013-07-12 10:34:00,
2013-07-12 04:35:00,54.5,44.6,29.77,North,0,3.4,3.4,69,0.00,,,0.00,WUHU216HW,2013-07-12 10:35:00,
2013-07-12 04:36:00,54.7,44.7,29.77,North,0,1.3,3.4,69,0.00,,,0.00,WUHU216HW,2013-07-12 10:36:00,
2013-07-12 04:37:00,54.9,44.6,29.77,North,0,1.1,3.4,68,0.00,,,0.00,WUHU216HW,2013-07-12 10:37:00,
2013-07-12 04:39:00,55.1,43.5,29.77,NNW,338,0.7,3.4,65,0.00,,,0.00,WUHU216HW,2013-07-12 10:39:00,
2013-07-12 04:41:00,55.1,43.9,29.77,NNW,338,0.7,3.4,66,0.00,,,0.00,WUHU216HW,2013-07-12 10:41:00,
2013-07-12 04:42:00,54.9,43.8,29.77,NNW,338,0.4,3.4,66,0.00,,,0.00,WUHU216HW,2013-07-12 10:42:00,
2013-07-12 04:45:00,54.9,43.8,29.77,North,0,0.4,3.4,66,0.00,,,0.00,WUHU216HW,2013-07-12 10:45:00,
2013-07-12 04:46:00,55.1,43.5,29.77,North,0,0.4,1.8,65,0.00,,,0.00,WUHU216HW,2013-07-12 10:46:00,
2013-07-12 04:47:00,55.1,43.5,29.77,NW,315,0.7,1.8,65,0.00,,,0.00,WUHU216HW,2013-07-12 10:47:00,
2013-07-12 04:50:00,55.1,42.7,29.77,West,270,2.5,2.5,63,0.00,,,0.00,WUHU216HW,2013-07-12 10:50:00,
2013-07-12 04:51:00,54.9,42.5,29.77,West,270,1.1,2.5,63,0.00,,,0.00,WUHU216HW,2013-07-12 10:51:00,
2013-07-12 04:52:00,54.7,42.0,29.77,West,270,1.1,2.5,62,0.00,,,0.00,WUHU216HW,2013-07-12 10:52:00,
2013-07-12 04:55:00,54.4,41.2,29.77,West,270,0.0,2.5,61,0.00,,,0.00,WUHU216HW,2013-07-12 10:55:00,
2013-07-12 04:56:00,54.2,41.1,29.77,West,270,0.7,2.5,61,0.00,,,0.00,WUHU216HW,2013-07-12 10:56:00,
2013-07-12 04:57:00,54.2,41.1,29.77,West,270,0.4,2.5,61,0.00,,,0.00,WUHU216HW,2013-07-12 10:57:00,
2013-07-12 04:58:00,54.2,41.1,29.77,West,270,0.4,2.5,61,0.00,,,0.00,WUHU216HW,2013-07-12 10:58:00,
2013-07-12 05:00:00,54.0,40.9,29.77,WNW,293,0.0,2.0,61,0.00,,,0.00,WUHU216HW,2013-07-12 11:00:00,
2013-07-12 05:02:00,53.8,40.7,29.77,WNW,293,0.4,1.6,61,0.00,,,0.00,WUHU216HW,2013-07-12 11:02:00,
2013-07-12 05:03:00,53.8,40.7,29.77,WNW,293,0.0,1.6,61,0.00,,,0.00,WUHU216HW,2013-07-12 11:03:00,
2013-07-12 05:05:00,53.8,40.7,29.77,WSW,248,4.7,4.7,61,0.00,,,0.00,WUHU216HW,2013-07-12 11:05:00,
2013-07-12 05:07:00,53.6,40.1,29.77,West,270,3.8,5.4,60,0.00,,,0.00,WUHU216HW,2013-07-12 11:07:00,
2013-07-12 05:08:00,53.6,40.1,29.77,West,270,2.5,5.4,60,0.00,,,0.00,WUHU216HW,2013-07-12 11:08:00,
2013-07-12 05:10:00,53.5,40.0,29.77,West,270,2.5,5.4,60,0.00,,,0.00,WUHU216HW,2013-07-12 11:10:00,
2013-07-12 05:13:00,53.3,39.8,29.77,WSW,248,4.5,5.4,60,0.00,,,0.00,WUHU216HW,2013-07-12 11:13:00,
2013-07-12 05:14:00,53.1,39.6,29.77,WSW,248,4.9,5.4,60,0.00,,,0.00,WUHU216HW,2013-07-12 11:14:00,
2013-07-12 05:15:00,52.9,39.4,29.77,WSW,248,4.7,5.4,60,0.00,,,0.00,WUHU216HW,2013-07-12 11:15:00,
2013-07-12 05:18:00,52.7,39.6,29.77,West,270,7.2,7.2,61,0.00,,,0.00,WUHU216HW,2013-07-12 11:18:00,
2013-07-12 05:19:00,52.6,39.5,29.77,WSW,248,5.6,7.2,61,0.00,,,0.00,WUHU216HW,2013-07-12 11:19:00,
2013-07-12 05:20:00,52.4,39.3,29.77,WSW,248,4.9,7.2,61,0.00,,,0.00,WUHU216HW,2013-07-12 11:20:00,
2013-07-12 05:23:00,52.4,39.7,29.77,WSW,248,6.9,7.2,62,0.00,,,0.00,WUHU216HW,2013-07-12 11:23:00,
2013-07-12 05:24:00,52.4,39.7,29.77,WSW,248,7.2,7.2,62,0.00,,,0.00,WUHU216HW,2013-07-12 11:24:00,
2013-07-12 05:25:00,52.4,39.7,29.77,West,270,5.8,7.2,62,0.00,,,0.00,WUHU216HW,2013-07-12 11:25:00,
2013-07-12 05:28:00,52.2,40.0,29.77,West,270,1.3,7.2,63,0.00,,,0.00,WUHU216HW,2013-07-12 11:28:00,
2013-07-12 05:29:00,52.4,40.2,29.77,SSE,158,0.4,7.2,63,0.00,,,0.00,WUHU216HW,2013-07-12 11:29:00,
2013-07-12 05:31:00,52.4,39.7,29.77,WSW,248,4.5,7.2,62,0.00,,,0.00,WUHU216HW,2013-07-12 11:31:00,
2013-07-12 05:33:00,52.4,40.2,29.77,West,270,6.0,7.2,63,0.00,,,0.00,WUHU216HW,2013-07-12 11:33:00,
2013-07-12 05:34:00,52.4,40.2,29.77,West,270,6.9,7.2,63,0.00,,,0.00,WUHU216HW,2013-07-12 11:34:00,
2013-07-12 05:35:00,52.4,41.3,29.77,WNW,293,4.0,6.9,66,0.00,,,0.00,WUHU216HW,2013-07-12 11:35:00,
2013-07-12 05:36:00,52.6,42.0,29.77,SW,225,2.0,6.9,67,0.00,,,0.00,WUHU216HW,2013-07-12 11:36:00,
2013-07-12 05:38:00,52.9,41.4,29.77,SW,225,1.1,6.9,65,0.00,,,0.00,WUHU216HW,2013-07-12 11:38:00,
2013-07-12 05:39:00,53.1,41.6,29.77,SW,225,1.6,6.9,65,0.00,,,0.00,WUHU216HW,2013-07-12 11:39:00,
2013-07-12 05:40:00,53.3,41.8,29.77,WSW,248,2.0,6.9,65,0.00,,,0.00,WUHU216HW,2013-07-12 11:40:00,
2013-07-12 05:41:00,53.3,41.4,29.77,West,270,5.1,6.9,64,0.00,,,0.00,WUHU216HW,2013-07-12 11:41:00,
2013-07-12 05:43:00,53.3,41.4,29.77,WSW,248,3.4,6.9,64,0.00,,,0.00,WUHU216HW,2013-07-12 11:43:00,
2013-07-12 05:44:00,53.3,41.0,29.78,WSW,248,2.7,6.9,63,0.00,,,0.00,WUHU216HW,2013-07-12 11:44:00,
2013-07-12 05:45:00,53.3,41.0,29.78,WSW,248,2.5,5.4,63,0.00,,,0.00,WUHU216HW,2013-07-12 11:45:00,
2013-07-12 05:46:00,53.3,41.0,29.78,WSW,248,2.2,5.4,63,0.00,,,0.00,WUHU216HW,2013-07-12 11:46:00,
2013-07-12 05:49:00,53.3,41.0,29.77,WSW,248,3.8,5.4,63,0.00,,,0.00,WUHU216HW,2013-07-12 11:49:00,
2013-07-12 05:50:00,53.3,41.0,29.77,WSW,248,4.0,5.4,63,0.00,,,0.00,WUHU216HW,2013-07-12 11:50:00,
2013-07-12 05:51:00,53.3,41.0,29.77,WSW,248,4.7,5.4,63,0.00,,,0.00,WUHU216HW,2013-07-12 11:51:00,
2013-07-12 05:54:00,53.3,41.0,29.77,WSW,248,5.8,5.8,63,0.00,,,0.00,WUHU216HW,2013-07-12 11:54:00,
2013-07-12 05:55:00,53.3,41.0,29.77,WSW,248,5.4,5.8,63,0.00,,,0.00,WUHU216HW,2013-07-12 11:55:00,
2013-07-12 05:56:00,53.3,40.6,29.77,WSW,248,4.7,5.8,62,0.00,,,0.00,WUHU216HW,2013-07-12 11:56:00,
2013-07-12 05:59:00,53.3,40.1,29.77,WSW,248,3.1,5.8,61,0.00,,,0.00,WUHU216HW,2013-07-12 11:59:00,
2013-07-12 06:00:00,53.3,40.1,29.78,WSW,248,3.8,5.8,61,0.00,,,0.00,WUHU216HW,2013-07-12 12:00:00,
2013-07-12 06:02:00,53.1,40.4,29.78,WSW,248,4.3,5.8,62,0.00,,,0.00,WUHU216HW,2013-07-12 12:02:00,
2013-07-12 06:04:00,53.1,40.0,29.78,WSW,248,2.7,5.8,61,0.00,,,0.00,WUHU216HW,2013-07-12 12:04:00,
2013-07-12 06:05:00,52.9,39.8,29.78,WSW,248,2.7,5.8,61,0.00,,,0.00,WUHU216HW,2013-07-12 12:05:00,
2013-07-12 06:07:00,52.9,39.8,29.78,WSW,248,3.8,5.4,61,0.00,,,0.00,WUHU216HW,2013-07-12 12:07:00,
2013-07-12 06:09:00,52.9,39.8,29.78,WSW,248,5.4,5.4,61,0.00,,,0.00,WUHU216HW,2013-07-12 12:09:00,
2013-07-12 06:10:00,52.9,39.8,29.78,WSW,248,4.7,5.4,61,0.00,,,0.00,WUHU216HW,2013-07-12 12:10:00,
2013-07-12 06:11:00,52.9,39.8,29.78,WSW,248,4.5,5.4,61,0.00,,,0.00,WUHU216HW,2013-07-12 12:11:00,
2013-07-12 06:12:00,52.9,39.8,29.78,WSW,248,2.9,5.4,61,0.00,,,0.00,WUHU216HW,2013-07-12 12:12:00,
2013-07-12 06:15:00,52.9,40.2,29.78,WSW,248,2.9,5.4,62,0.00,,,0.00,WUHU216HW,2013-07-12 12:15:00,
2013-07-12 06:16:00,52.9,40.2,29.78,West,270,3.6,5.4,62,0.00,,,0.00,WUHU216HW,2013-07-12 12:16:00,
2013-07-12 06:17:00,52.9,40.2,29.78,WSW,248,2.9,5.4,62,0.00,,,0.00,WUHU216HW,2013-07-12 12:17:00,
2013-07-12 06:20:00,52.9,40.6,29.78,SW,225,5.4,6.3,63,0.00,,,0.00,WUHU216HW,2013-07-12 12:20:00,
2013-07-12 06:21:00,52.9,41.1,29.77,WSW,248,4.9,6.3,64,0.00,,,0.00,WUHU216HW,2013-07-12 12:21:00,
2013-07-12 06:23:00,53.1,42.0,29.77,West,270,4.0,6.3,66,0.00,,,0.00,WUHU216HW,2013-07-12 12:23:00,
2013-07-12 06:25:00,53.3,41.4,29.77,WSW,248,3.8,6.3,64,0.00,,,0.00,WUHU216HW,2013-07-12 12:25:00,
2013-07-12 06:26:00,53.5,41.6,29.78,SW,225,4.7,6.3,64,0.00,,,0.00,WUHU216HW,2013-07-12 12:26:00,
2013-07-12 06:28:00,53.6,42.1,29.78,WSW,248,6.3,6.7,65,0.00,,,0.00,WUHU216HW,2013-07-12 12:28:00,
2013-07-12 06:30:00,54.2,42.2,29.77,WSW,248,4.7,6.9,64,0.00,,,0.00,WUHU216HW,2013-07-12 12:30:00,
2013-07-12 06:31:00,54.4,42.4,29.77,WSW,248,4.9,6.9,64,0.00,,,0.00,WUHU216HW,2013-07-12 12:31:00,
2013-07-12 06:32:00,54.5,42.6,29.77,WSW,248,4.0,6.9,64,0.00,,,0.00,WUHU216HW,2013-07-12 12:32:00,
2013-07-12 06:33:00,54.7,42.8,29.77,SW,225,3.6,6.9,64,0.00,,,0.00,WUHU216HW,2013-07-12 12:33:00,
2013-07-12 06:35:00,55.3,43.3,29.77,SW,225,2.9,6.9,64,0.00,,,0.00,WUHU216HW,2013-07-12 12:35:00,
2013-07-12 06:36:00,55.4,43.4,29.77,SW,225,2.2,6.9,64,0.00,,,0.00,WUHU216HW,2013-07-12 12:36:00,
2013-07-12 06:38:00,55.8,43.7,29.77,SW,225,1.3,6.9,64,0.00,,,0.00,WUHU216HW,2013-07-12 12:38:00,
2013-07-12 06:40:00,56.0,43.6,29.78,WSW,248,2.2,5.1,63,0.00,,,0.00,WUHU216HW,2013-07-12 12:40:00,
2013-07-12 06:41:00,56.2,43.8,29.78,WSW,248,2.5,4.9,63,0.00,,,0.00,WUHU216HW,2013-07-12 12:41:00,
2013-07-12 06:43:00,56.3,43.5,29.78,West,270,1.8,4.0,62,0.00,,,0.00,WUHU216HW,2013-07-12 12:43:00,
2013-07-12 06:45:00,56.5,43.7,29.78,West,270,2.2,4.0,62,0.00,,,0.00,WUHU216HW,2013-07-12 12:45:00,
2013-07-12 06:46:00,56.3,43.0,29.78,West,270,2.2,4.0,61,0.00,,,0.00,WUHU216HW,2013-07-12 12:46:00,
2013-07-12 06:47:00,56.5,43.2,29.78,WSW,248,1.1,4.0,61,0.00,,,0.00,WUHU216HW,2013-07-12 12:47:00,
2013-07-12 06:48:00,56.5,43.2,29.78,WSW,248,0.2,4.0,61,0.00,,,0.00,WUHU216HW,2013-07-12 12:48:00,
2013-07-12 06:51:00,56.7,43.0,29.78,WSW,248,0.9,4.0,60,0.00,,,0.00,WUHU216HW,2013-07-12 12:51:00,
2013-07-12 06:52:00,56.9,43.2,29.78,SSW,203,0.7,4.0,60,0.00,,,0.00,WUHU216HW,2013-07-12 12:52:00,
2013-07-12 06:53:00,56.9,43.2,29.78,SSW,203,0.2,4.0,60,0.00,,,0.00,WUHU216HW,2013-07-12 12:53:00,
2013-07-12 06:54:00,56.9,43.2,29.78,SSW,203,0.4,4.0,60,0.00,,,0.00,WUHU216HW,2013-07-12 12:54:00,
2013-07-12 06:56:00,57.2,43.6,29.78,ESE,113,1.3,2.2,60,0.00,,,0.00,WUHU216HW,2013-07-12 12:56:00,
2013-07-12 06:57:00,57.2,43.6,29.78,SE,135,1.1,1.8,60,0.00,,,0.00,WUHU216HW,2013-07-12 12:57:00,
2013-07-12 06:58:00,57.2,43.9,29.78,SE,135,1.8,1.8,61,0.00,,,0.00,WUHU216HW,2013-07-12 12:58:00,
2013-07-12 06:59:00,57.4,44.1,29.78,ESE,113,1.6,1.8,61,0.00,,,0.00,WUHU216HW,2013-07-12 12:59:00,
2013-07-12 07:01:00,57.6,44.3,29.78,SE,135,2.7,3.4,61,0.00,,,0.00,WUHU216HW,2013-07-12 13:01:00,
2013-07-12 07:02:00,57.6,44.3,29.78,SE,135,2.7,3.4,61,0.00,,,0.00,WUHU216HW,2013-07-12 13:02:00,
2013-07-12 07:04:00,57.6,44.3,29.78,SE,135,2.7,3.4,61,0.00,,,0.00,WUHU216HW,2013-07-12 13:04:00,
2013-07-12 07:05:00,57.6,44.3,29.78,SE,135,2.7,3.4,61,0.00,,,0.00,WUHU216HW,2013-07-12 13:05:00,
2013-07-12 07:06:00,58.0,44.7,29.78,SE,135,2.5,3.4,61,0.00,,,0.00,WUHU216HW,2013-07-12 13:06:00,
2013-07-12 07:07:00,58.0,44.7,29.78,ESE,113,1.8,3.4,61,0.00,,,0.00,WUHU216HW,2013-07-12 13:07:00,
2013-07-12 07:09:00,58.3,44.9,29.78,SE,135,1.6,3.4,61,0.00,,,0.00,WUHU216HW,2013-07-12 13:09:00,
2013-07-12 07:10:00,58.1,44.8,29.78,SE,135,3.1,3.4,61,0.00,,,0.00,WUHU216HW,2013-07-12 13:10:00,
2013-07-12 07:11:00,58.3,44.9,29.78,SE,135,3.6,3.6,61,0.00,,,0.00,WUHU216HW,2013-07-12 13:11:00,
2013-07-12 07:12:00,58.3,44.9,29.78,SE,135,2.2,3.6,61,0.00,,,0.00,WUHU216HW,2013-07-12 13:12:00,
2013-07-12 07:13:00,58.3,44.9,29.78,ESE,113,2.9,3.6,61,0.00,,,0.00,WUHU216HW,2013-07-12 13:13:00,
2013-07-12 07:14:00,58.3,44.9,29.78,SE,135,2.5,3.6,61,0.00,,,0.00,WUHU216HW,2013-07-12 13:14:00,
2013-07-12 07:15:00,58.5,45.1,29.78,SE,135,2.0,3.6,61,0.00,,,0.00,WUHU216HW,2013-07-12 13:15:00,
2013-07-12 07:16:00,58.5,45.1,29.78,SE,135,2.0,3.6,61,0.00,,,0.00,WUHU216HW,2013-07-12 13:16:00,
2013-07-12 07:17:00,58.3,44.9,29.78,SE,135,2.0,3.6,61,0.00,,,0.00,WUHU216HW,2013-07-12 13:17:00,
2013-07-12 07:18:00,58.5,45.1,29.78,ESE,113,2.7,3.6,61,0.00,,,0.00,WUHU216HW,2013-07-12 13:18:00,
2013-07-12 07:19:00,58.7,45.3,29.78,East,90,3.8,4.0,61,0.00,,,0.00,WUHU216HW,2013-07-12 13:19:00,
2013-07-12 07:20:00,58.7,45.3,29.78,ESE,113,2.2,4.0,61,0.00,,,0.00,WUHU216HW,2013-07-12 13:20:00,
2013-07-12 07:21:00,58.9,45.8,29.78,ESE,113,3.6,4.0,62,0.00,,,0.00,WUHU216HW,2013-07-12 13:21:00,
2013-07-12 07:22:00,58.9,45.8,29.78,ESE,113,3.6,4.0,62,0.00,,,0.00,WUHU216HW,2013-07-12 13:22:00,
2013-07-12 07:23:00,59.0,46.0,29.78,East,90,3.4,4.0,62,0.00,,,0.00,WUHU216HW,2013-07-12 13:23:00,
2013-07-12 07:24:00,59.2,46.2,29.78,SE,135,3.4,4.0,62,0.00,,,0.00,WUHU216HW,2013-07-12 13:24:00,
2013-07-12 07:26:00,59.4,46.4,29.78,ESE,113,1.8,4.0,62,0.00,,,0.00,WUHU216HW,2013-07-12 13:26:00,
2013-07-12 07:27:00,59.4,46.4,29.78,ESE,113,3.1,4.0,62,0.00,,,0.00,WUHU216HW,2013-07-12 13:27:00,
2013-07-12 07:28:00,59.4,46.4,29.78,East,90,3.4,4.0,62,0.00,,,0.00,WUHU216HW,2013-07-12 13:28:00,
2013-07-12 07:29:00,59.6,46.5,29.77,ESE,113,4.0,4.0,62,0.00,,,0.00,WUHU216HW,2013-07-12 13:29:00,
2013-07-12 07:31:00,59.8,46.7,29.78,ENE,68,3.4,4.0,62,0.00,,,0.00,WUHU216HW,2013-07-12 13:31:00,
2013-07-12 07:32:00,59.8,46.7,29.78,East,90,1.8,4.0,62,0.00,,,0.00,WUHU216HW,2013-07-12 13:32:00,
2013-07-12 07:34:00,60.1,46.7,29.77,ESE,113,1.3,4.0,61,0.00,,,0.00,WUHU216HW,2013-07-12 13:34:00,
2013-07-12 07:36:00,60.1,46.7,29.77,ENE,68,4.0,4.5,61,0.00,,,0.00,WUHU216HW,2013-07-12 13:36:00,
2013-07-12 07:37:00,60.3,46.9,29.77,East,90,3.4,4.5,61,0.00,,,0.00,WUHU216HW,2013-07-12 13:37:00,
2013-07-12 07:38:00,60.5,47.1,29.77,East,90,3.4,4.5,61,0.00,,,0.00,WUHU216HW,2013-07-12 13:38:00,
2013-07-12 07:39:00,60.5,47.1,29.77,East,90,2.7,4.5,61,0.00,,,0.00,WUHU216HW,2013-07-12 13:39:00,
2013-07-12 07:41:00,60.7,47.3,29.77,East,90,3.6,4.5,61,0.00,,,0.00,WUHU216HW,2013-07-12 13:41:00,
2013-07-12 07:42:00,60.7,46.8,29.78,East,90,3.8,4.5,60,0.00,,,0.00,WUHU216HW,2013-07-12 13:42:00,
2013-07-12 07:43:00,60.8,47.0,29.77,East,90,3.4,4.5,60,0.00,,,0.00,WUHU216HW,2013-07-12 13:43:00,
2013-07-12 07:44:00,61.0,47.2,29.77,ESE,113,3.4,4.5,60,0.00,,,0.00,WUHU216HW,2013-07-12 13:44:00,
2013-07-12 07:46:00,61.2,47.4,29.77,East,90,3.6,4.7,60,0.00,,,0.00,WUHU216HW,2013-07-12 13:46:00,
2013-07-12 07:47:00,61.2,47.4,29.77,ESE,113,2.0,4.7,60,0.00,,,0.00,WUHU216HW,2013-07-12 13:47:00,
2013-07-12 07:49:00,61.2,46.8,29.77,ESE,113,2.9,4.7,59,0.00,,,0.00,WUHU216HW,2013-07-12 13:49:00,
2013-07-12 07:50:00,61.4,47.0,29.77,East,90,2.5,4.7,59,0.00,,,0.00,WUHU216HW,2013-07-12 13:50:00,
2013-07-12 07:51:00,61.4,47.0,29.77,ENE,68,3.4,4.7,59,0.00,,,0.00,WUHU216HW,2013-07-12 13:51:00,
2013-07-12 07:52:00,61.6,47.2,29.77,ESE,113,5.1,5.1,59,0.00,,,0.00,WUHU216HW,2013-07-12 13:52:00,
2013-07-12 07:54:00,61.6,47.2,29.77,ESE,113,4.9,5.1,59,0.00,,,0.00,WUHU216HW,2013-07-12 13:54:00,
2013-07-12 07:55:00,61.9,47.4,29.77,East,90,4.0,5.1,59,0.00,,,0.00,WUHU216HW,2013-07-12 13:55:00,
2013-07-12 07:56:00,61.9,47.0,29.77,East,90,2.0,5.1,58,0.00,,,0.00,WUHU216HW,2013-07-12 13:56:00,
2013-07-12 07:57:00,61.9,47.0,29.78,ESE,113,3.8,5.1,58,0.00,,,0.00,WUHU216HW,2013-07-12 13:57:00,
2013-07-12 07:59:00,62.3,47.4,29.77,SSE,158,3.1,5.1,58,0.00,,,0.00,WUHU216HW,2013-07-12 13:59:00,
2013-07-12 08:00:00,62.3,46.8,29.78,SE,135,2.7,5.1,57,0.00,,,0.00,WUHU216HW,2013-07-12 14:00:00,
2013-07-12 08:02:00,62.3,46.8,29.77,SSE,158,6.7,6.7,57,0.00,,,0.00,WUHU216HW,2013-07-12 14:02:00,
2013-07-12 08:04:00,62.3,46.4,29.78,SE,135,2.7,6.7,56,0.00,,,0.00,WUHU216HW,2013-07-12 14:04:00,
2013-07-12 08:05:00,62.5,46.0,29.78,SSE,158,5.1,6.7,55,0.00,,,0.00,WUHU216HW,2013-07-12 14:05:00,
2013-07-12 08:06:00,62.5,46.0,29.78,SSE,158,6.9,6.9,55,0.00,,,0.00,WUHU216HW,2013-07-12 14:06:00,
2013-07-12 08:07:00,62.5,46.0,29.77,SSE,158,4.7,6.9,55,0.00,,,0.00,WUHU216HW,2013-07-12 14:07:00,
2013-07-12 08:10:00,62.5,46.0,29.77,ESE,113,3.8,6.9,55,0.00,,,0.00,WUHU216HW,2013-07-12 14:10:00,
2013-07-12 08:11:00,62.5,46.0,29.77,SE,135,4.7,6.9,55,0.00,,,0.00,WUHU216HW,2013-07-12 14:11:00,
2013-07-12 08:12:00,62.6,45.7,29.77,SE,135,6.9,6.9,54,0.00,,,0.00,WUHU216HW,2013-07-12 14:12:00,
2013-07-12 08:15:00,62.6,45.7,29.77,SE,135,6.0,6.9,54,0.00,,,0.00,WUHU216HW,2013-07-12 14:15:00,
2013-07-12 08:16:00,62.6,45.7,29.77,SE,135,4.9,6.9,54,0.00,,,0.00,WUHU216HW,2013-07-12 14:16:00,
2013-07-12 08:17:00,62.8,45.8,29.77,SE,135,4.0,6.9,54,0.00,,,0.00,WUHU216HW,2013-07-12 14:17:00,
2013-07-12 08:18:00,62.8,45.8,29.77,SE,135,5.4,6.9,54,0.00,,,0.00,WUHU216HW,2013-07-12 14:18:00,
2013-07-12 08:20:00,63.0,46.0,29.77,SE,135,3.8,6.9,54,0.00,,,0.00,WUHU216HW,2013-07-12 14:20:00,
2013-07-12 08:22:00,63.0,46.0,29.77,SE,135,2.7,6.9,54,0.00,,,0.00,WUHU216HW,2013-07-12 14:22:00,
2013-07-12 08:23:00,63.0,46.0,29.77,SE,135,2.7,6.0,54,0.00,,,0.00,WUHU216HW,2013-07-12 14:23:00,
2013-07-12 08:25:00,63.4,45.8,29.77,SE,135,2.5,6.0,53,0.00,,,0.00,WUHU216HW,2013-07-12 14:25:00,
2013-07-12 08:27:00,63.4,45.8,29.77,ESE,113,6.5,6.5,53,0.00,,,0.00,WUHU216HW,2013-07-12 14:27:00,
2013-07-12 08:28:00,63.5,46.0,29.77,SE,135,4.5,6.5,53,0.00,,,0.00,WUHU216HW,2013-07-12 14:28:00,
2013-07-12 08:30:00,63.7,46.2,29.77,SSE,158,4.7,6.5,53,0.00,,,0.00,WUHU216HW,2013-07-12 14:30:00,
2013-07-12 08:32:00,63.9,45.8,29.77,SE,135,3.1,6.5,52,0.00,,,0.00,WUHU216HW,2013-07-12 14:32:00,
2013-07-12 08:33:00,63.9,45.8,29.77,SE,135,3.6,6.5,52,0.00,,,0.00,WUHU216HW,2013-07-12 14:33:00,
2013-07-12 08:35:00,64.1,45.6,29.77,SE,135,4.9,6.5,51,0.00,,,0.00,WUHU216HW,2013-07-12 14:35:00,
2013-07-12 08:37:00,64.3,45.7,29.77,ESE,113,6.9,6.9,51,0.00,,,0.00,WUHU216HW,2013-07-12 14:37:00,
2013-07-12 08:38:00,64.3,45.7,29.77,ESE,113,2.9,6.9,51,0.00,,,0.00,WUHU216HW,2013-07-12 14:38:00,
2013-07-12 08:40:00,64.4,45.8,29.77,SE,135,3.8,6.9,51,0.00,,,0.00,WUHU216HW,2013-07-12 14:40:00,
2013-07-12 08:42:00,64.4,45.8,29.77,SSE,158,5.6,6.9,51,0.00,,,0.00,WUHU216HW,2013-07-12 14:42:00,
2013-07-12 08:43:00,64.6,46.0,29.77,SSE,158,4.7,6.9,51,0.00,,,0.00,WUHU216HW,2013-07-12 14:43:00,
2013-07-12 08:45:00,64.8,46.2,29.77,SE,135,5.4,6.9,51,0.00,,,0.00,WUHU216HW,2013-07-12 14:45:00,
2013-07-12 08:47:00,65.0,45.9,29.77,SE,135,5.6,6.9,50,0.00,,,0.00,WUHU216HW,2013-07-12 14:47:00,
2013-07-12 08:48:00,65.0,45.9,29.77,SE,135,6.9,6.9,50,0.00,,,0.00,WUHU216HW,2013-07-12 14:48:00,
2013-07-12 08:50:00,65.2,46.1,29.77,SSE,158,5.1,7.6,50,0.00,,,0.00,WUHU216HW,2013-07-12 14:50:00,
2013-07-12 08:53:00,65.2,46.1,29.77,SE,135,5.8,7.6,50,0.00,,,0.00,WUHU216HW,2013-07-12 14:53:00,
2013-07-12 08:54:00,65.2,46.1,29.77,SE,135,4.0,7.6,50,0.00,,,0.00,WUHU216HW,2013-07-12 14:54:00,
2013-07-12 08:55:00,65.2,46.1,29.77,SE,135,4.0,7.6,50,0.00,,,0.00,WUHU216HW,2013-07-12 14:55:00,
2013-07-12 08:58:00,65.5,46.4,29.77,SE,135,4.9,7.6,50,0.00,,,0.00,WUHU216HW,2013-07-12 14:58:00,
2013-07-12 08:59:00,65.5,45.8,29.77,ESE,113,6.3,7.6,49,0.00,,,0.00,WUHU216HW,2013-07-12 14:59:00,
2013-07-12 09:00:00,65.7,46.0,29.77,SSE,158,4.7,7.2,49,0.00,,,0.00,WUHU216HW,2013-07-12 15:00:00,
2013-07-12 09:01:00,65.7,46.0,29.77,SSE,158,4.0,7.2,49,0.00,,,0.00,WUHU216HW,2013-07-12 15:01:00,
2013-07-12 09:03:00,65.9,46.2,29.77,ESE,113,4.0,8.3,49,0.00,,,0.00,WUHU216HW,2013-07-12 15:03:00,
2013-07-12 09:04:00,65.9,46.2,29.77,ESE,113,6.9,8.3,49,0.00,,,0.00,WUHU216HW,2013-07-12 15:04:00,
2013-07-12 09:06:00,66.1,46.4,29.77,SE,135,6.3,8.5,49,0.00,,,0.00,WUHU216HW,2013-07-12 15:06:00,
2013-07-12 09:09:00,66.6,46.9,29.77,SSE,158,6.5,8.5,49,0.00,,,0.00,WUHU216HW,2013-07-12 15:09:00,
2013-07-12 09:11:00,66.8,46.4,29.77,SE,135,4.5,8.5,48,0.00,,,0.00,WUHU216HW,2013-07-12 15:11:00,
2013-07-12 09:14:00,67.0,46.6,29.77,SSE,158,4.0,8.5,48,0.00,,,0.00,WUHU216HW,2013-07-12 15:14:00,
2013-07-12 09:16:00,67.3,47.0,29.77,ESE,113,3.6,8.5,48,0.00,,,0.00,WUHU216HW,2013-07-12 15:16:00,
2013-07-12 09:19:00,67.5,47.1,29.77,SE,135,3.6,6.9,48,0.00,,,0.00,WUHU216HW,2013-07-12 15:19:00,
2013-07-12 09:21:00,67.7,46.7,29.77,SE,135,2.0,6.0,47,0.00,,,0.00,WUHU216HW,2013-07-12 15:21:00,
2013-07-12 09:24:00,67.9,47.4,29.77,SE,135,4.0,6.0,48,0.00,,,0.00,WUHU216HW,2013-07-12 15:24:00,
2013-07-12 09:25:00,67.9,47.4,29.77,SE,135,4.5,6.0,48,0.00,,,0.00,WUHU216HW,2013-07-12 15:25:00,
2013-07-12 09:26:00,68.0,47.6,29.77,SE,135,4.5,6.0,48,0.00,,,0.00,WUHU216HW,2013-07-12 15:26:00,
2013-07-12 09:29:00,68.4,47.9,29.77,SE,135,1.1,6.0,48,0.00,,,0.00,WUHU216HW,2013-07-12 15:29:00,
2013-07-12 09:30:00,68.6,48.1,29.77,SE,135,1.1,5.8,48,0.00,,,0.00,WUHU216HW,2013-07-12 15:30:00,
2013-07-12 09:31:00,68.8,47.6,29.77,SE,135,4.3,5.8,47,0.00,,,0.00,WUHU216HW,2013-07-12 15:31:00,
2013-07-12 09:35:00,69.1,48.0,29.77,ESE,113,6.7,6.7,47,0.00,,,0.00,WUHU216HW,2013-07-12 15:35:00,
2013-07-12 09:36:00,69.3,48.2,29.77,ESE,113,5.1,6.7,47,0.00,,,0.00,WUHU216HW,2013-07-12 15:36:00,
2013-07-12 09:40:00,69.5,48.3,29.76,ESE,113,4.5,6.7,47,0.00,,,0.00,WUHU216HW,2013-07-12 15:40:00,
2013-07-12 09:41:00,69.7,48.4,29.77,East,90,5.4,6.7,47,0.00,,,0.00,WUHU216HW,2013-07-12 15:41:00,
2013-07-12 09:42:00,69.5,48.3,29.77,ESE,113,4.7,6.7,47,0.00,,,0.00,WUHU216HW,2013-07-12 15:42:00,
2013-07-12 09:45:00,70.0,48.8,29.76,East,90,6.0,6.9,47,0.00,,,0.00,WUHU216HW,2013-07-12 15:45:00,
2013-07-12 09:46:00,70.2,49.0,29.76,ESE,113,4.3,6.9,47,0.00,,,0.00,WUHU216HW,2013-07-12 15:46:00,
2013-07-12 09:47:00,70.2,49.0,29.76,SE,135,2.5,6.9,47,0.00,,,0.00,WUHU216HW,2013-07-12 15:47:00,
2013-07-12 09:50:00,70.7,48.9,29.76,SE,135,2.0,6.9,46,0.00,,,0.00,WUHU216HW,2013-07-12 15:50:00,
2013-07-12 09:51:00,70.9,49.0,29.76,South,180,4.3,6.9,46,0.00,,,0.00,WUHU216HW,2013-07-12 15:51:00,
2013-07-12 09:52:00,70.9,49.0,29.76,SW,225,3.1,6.9,46,0.00,,,0.00,WUHU216HW,2013-07-12 15:52:00,
2013-07-12 09:55:00,71.3,48.7,29.76,SW,225,4.0,5.4,45,0.00,,,0.00,WUHU216HW,2013-07-12 15:55:00,
2013-07-12 09:56:00,71.3,48.7,29.76,SSW,203,6.3,6.3,45,0.00,,,0.00,WUHU216HW,2013-07-12 15:56:00,
2013-07-12 09:57:00,71.5,48.9,29.76,WSW,248,3.4,6.3,45,0.00,,,0.00,WUHU216HW,2013-07-12 15:57:00,
2013-07-12 10:01:00,71.8,49.2,29.76,South,180,2.0,6.3,45,0.00,,,0.00,WUHU216HW,2013-07-12 16:01:00,
2013-07-12 10:02:00,72.0,48.8,29.76,SE,135,2.5,6.3,44,0.00,,,0.00,WUHU216HW,2013-07-12 16:02:00,
2013-07-12 10:03:00,72.0,48.8,29.76,SE,135,4.0,6.3,44,0.00,,,0.00,WUHU216HW,2013-07-12 16:03:00,
2013-07-12 10:06:00,72.4,49.2,29.76,SE,135,6.3,7.4,44,0.00,,,0.00,WUHU216HW,2013-07-12 16:06:00,
2013-07-12 10:07:00,72.5,49.2,29.76,SE,135,2.7,7.4,44,0.00,,,0.00,WUHU216HW,2013-07-12 16:07:00,
2013-07-12 10:11:00,72.9,49.0,29.76,ESE,113,3.1,7.4,43,0.00,,,0.00,WUHU216HW,2013-07-12 16:11:00,
2013-07-12 10:12:00,72.9,47.8,29.76,NE,45,3.6,7.4,41,0.00,,,0.00,WUHU216HW,2013-07-12 16:12:00,
2013-07-12 10:13:00,72.9,47.8,29.75,NE,45,3.1,7.4,41,0.00,,,0.00,WUHU216HW,2013-07-12 16:13:00,
2013-07-12 10:16:00,72.4,47.9,29.75,ENE,68,0.7,5.4,42,0.00,,,0.00,WUHU216HW,2013-07-12 16:16:00,
2013-07-12 10:17:00,72.4,47.9,29.75,NE,45,3.1,5.1,42,0.00,,,0.00,WUHU216HW,2013-07-12 16:17:00,
2013-07-12 10:18:00,72.4,47.9,29.75,ENE,68,2.5,4.5,42,0.00,,,0.00,WUHU216HW,2013-07-12 16:18:00,
2013-07-12 10:19:00,72.4,47.4,29.75,NE,45,4.7,4.7,41,0.00,,,0.00,WUHU216HW,2013-07-12 16:19:00,
2013-07-12 10:21:00,72.5,47.5,29.75,East,90,3.4,6.9,41,0.00,,,0.00,WUHU216HW,2013-07-12 16:21:00,
2013-07-12 10:22:00,72.5,48.1,29.75,East,90,5.4,6.9,42,0.00,,,0.00,WUHU216HW,2013-07-12 16:22:00,
2013-07-12 10:23:00,72.5,48.1,29.75,East,90,2.9,6.9,42,0.00,,,0.00,WUHU216HW,2013-07-12 16:23:00,
2013-07-12 10:24:00,72.7,48.2,29.75,SE,135,3.6,6.9,42,0.00,,,0.00,WUHU216HW,2013-07-12 16:24:00,
2013-07-12 10:26:00,72.9,48.4,29.75,ESE,113,2.5,6.9,42,0.00,,,0.00,WUHU216HW,2013-07-12 16:26:00,
2013-07-12 10:27:00,72.9,47.8,29.75,East,90,4.3,6.9,41,0.00,,,0.00,WUHU216HW,2013-07-12 16:27:00,
2013-07-12 10:28:00,72.9,48.4,29.75,East,90,2.5,6.9,42,0.00,,,0.00,WUHU216HW,2013-07-12 16:28:00,
2013-07-12 10:29:00,73.1,48.6,29.75,SE,135,3.4,6.9,42,0.00,,,0.00,WUHU216HW,2013-07-12 16:29:00,
2013-07-12 10:31:00,73.1,48.6,29.75,East,90,4.5,7.6,42,0.00,,,0.00,WUHU216HW,2013-07-12 16:31:00,
2013-07-12 10:32:00,73.3,48.7,29.75,ESE,113,4.0,7.6,42,0.00,,,0.00,WUHU216HW,2013-07-12 16:32:00,
2013-07-12 10:33:00,73.3,48.7,29.75,ESE,113,4.0,7.6,42,0.00,,,0.00,WUHU216HW,2013-07-12 16:33:00,
2013-07-12 10:34:00,73.6,48.4,29.75,SSE,158,7.6,7.6,41,0.00,,,0.00,WUHU216HW,2013-07-12 16:34:00,
2013-07-12 10:36:00,74.0,49.4,29.75,ESE,113,7.4,7.6,42,0.00,,,0.00,WUHU216HW,2013-07-12 16:36:00,
2013-07-12 10:37:00,74.2,49.0,29.75,NE,45,6.5,8.3,41,0.00,,,0.00,WUHU216HW,2013-07-12 16:37:00,
2013-07-12 10:38:00,74.2,49.0,29.75,ENE,68,6.3,8.3,41,0.00,,,0.00,WUHU216HW,2013-07-12 16:38:00,
2013-07-12 10:40:00,74.2,49.0,29.75,ESE,113,6.5,9.8,41,0.00,,,0.00,WUHU216HW,2013-07-12 16:40:00,
2013-07-12 10:42:00,74.3,49.2,29.75,East,90,5.4,9.8,41,0.00,,,0.00,WUHU216HW,2013-07-12 16:42:00,
2013-07-12 10:43:00,74.5,49.3,29.75,NNE,23,3.4,9.8,41,0.00,,,0.00,WUHU216HW,2013-07-12 16:43:00,
2013-07-12 10:45:00,74.5,48.7,29.75,NNE,23,5.6,9.8,40,0.00,,,0.00,WUHU216HW,2013-07-12 16:45:00,
2013-07-12 10:47:00,74.3,49.2,29.75,ESE,113,4.0,9.8,41,0.00,,,0.00,WUHU216HW,2013-07-12 16:47:00,
2013-07-12 10:48:00,74.2,49.0,29.75,East,90,6.9,9.8,41,0.00,,,0.00,WUHU216HW,2013-07-12 16:48:00,
2013-07-12 10:50:00,74.5,49.3,29.75,SE,135,6.7,8.1,41,0.00,,,0.00,WUHU216HW,2013-07-12 16:50:00,
2013-07-12 10:53:00,74.9,49.6,29.74,SE,135,4.3,8.1,41,0.00,,,0.00,WUHU216HW,2013-07-12 16:53:00,
2013-07-12 10:56:00,75.8,50.4,29.74,South,180,3.1,8.1,41,0.00,,,0.00,WUHU216HW,2013-07-12 16:56:00,
2013-07-12 10:58:00,76.5,50.5,29.74,ESE,113,7.6,8.1,40,0.00,,,0.00,WUHU216HW,2013-07-12 16:58:00,
2013-07-12 10:59:00,76.5,50.5,29.74,ESE,113,7.6,8.1,40,0.00,,,0.00,WUHU216HW,2013-07-12 16:59:00,
2013-07-12 11:00:00,76.7,50.6,29.74,ESE,113,8.3,8.3,40,0.00,,,0.00,WUHU216HW,2013-07-12 17:00:00,
2013-07-12 11:02:00,76.7,49.9,29.74,SE,135,5.6,8.3,39,0.00,,,0.00,WUHU216HW,2013-07-12 17:02:00,
2013-07-12 11:04:00,76.7,49.2,29.74,East,90,8.5,8.5,38,0.00,,,0.00,WUHU216HW,2013-07-12 17:04:00,
2013-07-12 11:05:00,76.7,49.9,29.74,ESE,113,3.4,8.5,39,0.00,,,0.00,WUHU216HW,2013-07-12 17:05:00,
2013-07-12 11:08:00,76.9,50.1,29.74,East,90,5.1,9.4,39,0.00,,,0.00,WUHU216HW,2013-07-12 17:08:00,
2013-07-12 11:09:00,77.0,49.4,29.74,East,90,6.9,9.4,38,0.00,,,0.00,WUHU216HW,2013-07-12 17:09:00,
2013-07-12 11:11:00,77.0,48.7,29.74,East,90,6.9,9.4,37,0.00,,,0.00,WUHU216HW,2013-07-12 17:11:00,
2013-07-12 11:13:00,76.9,49.2,29.74,ESE,113,4.7,9.4,38,0.00,,,0.00,WUHU216HW,2013-07-12 17:13:00,
2013-07-12 11:14:00,76.7,48.3,29.74,ESE,113,7.6,9.4,37,0.00,,,0.00,WUHU216HW,2013-07-12 17:14:00,
2013-07-12 11:16:00,76.7,49.2,29.74,ESE,113,7.6,9.4,38,0.00,,,0.00,WUHU216HW,2013-07-12 17:16:00,
2013-07-12 11:19:00,77.4,49.8,29.74,SE,135,5.8,7.6,38,0.00,,,0.00,WUHU216HW,2013-07-12 17:19:00,
2013-07-12 11:21:00,77.8,50.0,29.74,South,180,4.3,7.6,38,0.00,,,0.00,WUHU216HW,2013-07-12 17:21:00,
2013-07-12 11:24:00,78.5,50.0,29.74,SE,135,4.7,7.6,37,0.00,,,0.00,WUHU216HW,2013-07-12 17:24:00,
2013-07-12 11:26:00,79.2,50.6,29.74,East,90,1.6,7.6,37,0.00,,,0.00,WUHU216HW,2013-07-12 17:26:00,
2013-07-12 11:29:00,79.7,48.7,29.73,ENE,68,8.1,8.1,34,0.00,,,0.00,WUHU216HW,2013-07-12 17:29:00,
2013-07-12 11:30:00,79.7,48.0,29.73,ENE,68,7.6,9.2,33,0.00,,,0.00,WUHU216HW,2013-07-12 17:30:00,
2013-07-12 11:31:00,79.9,48.9,29.73,East,90,4.9,9.2,34,0.00,,,0.00,WUHU216HW,2013-07-12 17:31:00,
2013-07-12 11:32:00,79.9,48.9,29.73,East,90,4.9,9.2,34,0.00,,,0.00,WUHU216HW,2013-07-12 17:32:00,
2013-07-12 11:35:00,79.7,48.7,29.74,East,90,6.7,9.2,34,0.00,,,0.00,WUHU216HW,2013-07-12 17:35:00,
2013-07-12 11:37:00,79.6,48.6,29.74,SE,135,4.0,9.2,34,0.00,,,0.00,WUHU216HW,2013-07-12 17:37:00,
2013-07-12 11:40:00,79.4,46.9,29.73,ENE,68,3.1,7.8,32,0.00,,,0.00,WUHU216HW,2013-07-12 17:40:00,
2013-07-12 11:41:00,79.2,46.7,29.73,ENE,68,4.0,7.8,32,0.00,,,0.00,WUHU216HW,2013-07-12 17:41:00,
2013-07-12 11:42:00,78.8,47.9,29.73,ESE,113,2.0,7.4,34,0.00,,,0.00,WUHU216HW,2013-07-12 17:42:00,
2013-07-12 11:46:00,78.8,47.9,29.73,SE,135,2.5,5.1,34,0.00,,,0.00,WUHU216HW,2013-07-12 17:46:00,
2013-07-12 11:47:00,79.2,47.4,29.73,East,90,8.3,10.3,33,0.00,,,0.00,WUHU216HW,2013-07-12 17:47:00,
2013-07-12 11:48:00,79.2,48.2,29.73,ESE,113,5.4,10.3,34,0.00,,,0.00,WUHU216HW,2013-07-12 17:48:00,
2013-07-12 11:51:00,79.6,47.8,29.73,SSE,158,2.5,10.3,33,0.00,,,0.00,WUHU216HW,2013-07-12 17:51:00,
2013-07-12 11:52:00,79.7,47.2,29.73,ESE,113,8.5,10.3,32,0.00,,,0.00,WUHU216HW,2013-07-12 17:52:00,
2013-07-12 11:53:00,79.9,47.3,29.73,SSE,158,6.7,10.3,32,0.00,,,0.00,WUHU216HW,2013-07-12 17:53:00,
2013-07-12 11:55:00,80.5,47.8,29.72,ESE,113,6.0,10.3,32,0.00,,,0.00,WUHU216HW,2013-07-12 17:55:00,
2013-07-12 11:56:00,80.6,47.3,29.72,East,90,10.3,10.3,31,0.00,,,0.00,WUHU216HW,2013-07-12 17:56:00,
2013-07-12 11:57:00,80.6,47.3,29.72,ESE,113,14.3,14.3,31,0.00,,,0.00,WUHU216HW,2013-07-12 17:57:00,
2013-07-12 11:58:00,80.5,47.8,29.72,East,90,12.8,14.3,32,0.00,,,0.00,WUHU216HW,2013-07-12 17:58:00,
2013-07-12 12:00:00,80.3,46.1,29.72,SE,135,14.1,17.9,30,0.00,,,0.00,WUHU216HW,2013-07-12 18:00:00,
2013-07-12 12:01:00,80.3,46.9,29.72,ENE,68,8.1,17.9,31,0.00,,,0.00,WUHU216HW,2013-07-12 18:01:00,
2013-07-12 12:02:00,80.3,46.9,29.72,East,90,11.6,17.9,31,0.00,,,0.00,WUHU216HW,2013-07-12 18:02:00,
2013-07-12 12:03:00,80.5,47.8,29.72,ESE,113,18.8,18.8,32,0.00,,,0.00,WUHU216HW,2013-07-12 18:03:00,
2013-07-12 12:06:00,80.5,46.3,29.72,ESE,113,13.4,18.8,30,0.00,,,0.00,WUHU216HW,2013-07-12 18:06:00,
2013-07-12 12:07:00,80.8,47.3,29.72,SE,135,6.5,18.8,31,0.00,,,0.00,WUHU216HW,2013-07-12 18:07:00,
2013-07-12 12:08:00,80.8,48.2,29.72,East,90,9.2,18.8,32,0.00,,,0.00,WUHU216HW,2013-07-12 18:08:00,
2013-07-12 12:11:00,81.4,47.0,29.72,ESE,113,11.9,18.8,30,0.00,,,0.00,WUHU216HW,2013-07-12 18:11:00,
2013-07-12 12:12:00,81.5,46.1,29.71,SSE,158,9.6,18.8,29,0.00,,,0.00,WUHU216HW,2013-07-12 18:12:00,
2013-07-12 12:13:00,81.7,45.2,29.71,SE,135,7.8,18.8,28,0.00,,,0.00,WUHU216HW,2013-07-12 18:13:00,
2013-07-12 12:14:00,81.7,45.2,29.71,SW,225,7.6,18.1,28,0.00,,,0.00,WUHU216HW,2013-07-12 18:14:00,
2013-07-12 12:16:00,81.7,43.1,29.71,ENE,68,6.3,15.4,26,0.00,,,0.00,WUHU216HW,2013-07-12 18:16:00,
2013-07-12 12:18:00,81.7,43.1,29.71,ESE,113,8.9,15.4,26,0.00,,,0.00,WUHU216HW,2013-07-12 18:18:00,
2013-07-12 12:20:00,81.4,44.9,29.71,East,90,6.9,13.0,28,0.00,,,0.00,WUHU216HW,2013-07-12 18:20:00,
2013-07-12 12:23:00,81.2,45.8,29.71,ESE,113,2.9,12.1,29,0.00,,,0.00,WUHU216HW,2013-07-12 18:23:00,
2013-07-12 12:25:00,80.6,43.3,29.71,ESE,113,11.9,15.0,27,0.00,,,0.00,WUHU216HW,2013-07-12 18:25:00,
2013-07-12 12:26:00,80.5,44.2,29.71,East,90,10.5,15.0,28,0.00,,,0.00,WUHU216HW,2013-07-12 18:26:00,
2013-07-12 12:28:00,80.6,45.4,29.71,ESE,113,7.2,15.0,29,0.00,,,0.00,WUHU216HW,2013-07-12 18:28:00,
2013-07-12 12:29:00,80.8,45.5,29.71,ESE,113,13.6,15.0,29,0.00,,,0.00,WUHU216HW,2013-07-12 18:29:00,
2013-07-12 12:31:00,81.4,44.9,29.71,ESE,113,5.8,15.0,28,0.00,,,0.00,WUHU216HW,2013-07-12 18:31:00,
2013-07-12 12:34:00,81.7,46.3,29.71,ESE,113,5.8,15.0,29,0.00,,,0.00,WUHU216HW,2013-07-12 18:34:00,
2013-07-12 12:37:00,82.4,45.8,29.71,North,0,0.0,13.6,28,0.00,,,0.00,WUHU216HW,2013-07-12 18:37:00,
2013-07-12 12:38:00,83.2,46.5,29.71,North,0,0.0,13.6,28,0.00,,,0.00,WUHU216HW,2013-07-12 18:38:00,
2013-07-12 12:39:00,83.5,44.7,29.71,North,0,0.0,13.6,26,0.00,,,0.00,WUHU216HW,2013-07-12 18:39:00,
2013-07-12 12:43:00,85.0,45.9,29.71,North,0,0.0,5.8,26,0.00,,,0.00,WUHU216HW,2013-07-12 18:43:00,
2013-07-12 12:44:00,85.0,45.9,29.71,North,0,0.0,5.8,26,0.00,,,0.00,WUHU216HW,2013-07-12 18:44:00,
2013-07-12 12:45:00,85.5,43.1,29.71,North,0,0.0,0.0,23,0.00,,,0.00,WUHU216HW,2013-07-12 18:45:00,
2013-07-12 12:49:00,85.3,44.0,29.71,North,0,0.0,0.0,24,0.00,,,0.00,WUHU216HW,2013-07-12 18:49:00,
2013-07-12 12:50:00,85.5,44.2,29.71,North,0,0.0,0.0,24,0.00,,,0.00,WUHU216HW,2013-07-12 18:50:00,
2013-07-12 12:51:00,85.7,44.4,29.71,North,0,0.0,0.0,24,0.00,,,0.00,WUHU216HW,2013-07-12 18:51:00,
2013-07-12 12:54:00,84.8,41.5,29.71,North,0,0.0,0.0,22,0.00,,,0.00,WUHU216HW,2013-07-12 18:54:00,
2013-07-12 12:56:00,84.1,40.9,29.71,North,0,0.0,0.0,22,0.00,,,0.00,WUHU216HW,2013-07-12 18:56:00,
2013-07-12 13:00:00,82.6,42.9,29.71,North,0,0.0,0.0,25,0.00,,,0.00,WUHU216HW,2013-07-12 19:00:00,
2013-07-12 13:01:00,82.4,41.6,29.71,North,0,0.0,0.0,24,0.00,,,0.00,WUHU216HW,2013-07-12 19:01:00,
2013-07-12 13:02:00,81.9,43.3,29.71,North,0,0.0,0.0,26,0.00,,,0.00,WUHU216HW,2013-07-12 19:02:00,
2013-07-12 13:06:00,80.6,42.3,29.71,North,0,0.0,0.0,26,0.00,,,0.00,WUHU216HW,2013-07-12 19:06:00,
2013-07-12 13:07:00,80.5,44.2,29.71,North,0,0.0,0.0,28,0.00,,,0.00,WUHU216HW,2013-07-12 19:07:00,
2013-07-12 13:09:00,80.6,44.4,29.71,North,0,0.0,0.0,28,0.00,,,0.00,WUHU216HW,2013-07-12 19:09:00,
2013-07-12 13:12:00,81.0,42.6,29.71,North,0,0.0,0.0,26,0.00,,,0.00,WUHU216HW,2013-07-12 19:12:00,
2013-07-12 13:14:00,81.4,42.8,29.70,North,0,0.0,0.0,26,0.00,,,0.00,WUHU216HW,2013-07-12 19:14:00,
2013-07-12 13:17:00,81.9,42.2,29.70,North,0,0.0,0.0,25,0.00,,,0.00,WUHU216HW,2013-07-12 19:17:00,
2013-07-12 13:18:00,82.1,41.3,29.70,North,0,0.0,0.0,24,0.00,,,0.00,WUHU216HW,2013-07-12 19:18:00,
2013-07-12 13:19:00,82.3,41.5,29.70,North,0,0.0,0.0,24,0.00,,,0.00,WUHU216HW,2013-07-12 19:19:00,
2013-07-12 13:21:00,82.4,41.6,29.70,North,0,0.0,0.0,24,0.00,,,0.00,WUHU216HW,2013-07-12 19:21:00,
2013-07-12 13:23:00,82.6,43.8,29.70,North,0,0.0,0.0,26,0.00,,,0.00,WUHU216HW,2013-07-12 19:23:00,
2013-07-12 13:24:00,82.8,42.0,29.70,North,0,0.0,0.0,24,0.00,,,0.00,WUHU216HW,2013-07-12 19:24:00,
2013-07-12 13:27:00,83.3,42.4,29.70,North,0,0.0,0.0,24,0.00,,,0.00,WUHU216HW,2013-07-12 19:27:00,
2013-07-12 13:28:00,83.5,43.6,29.70,North,0,0.0,0.0,25,0.00,,,0.00,WUHU216HW,2013-07-12 19:28:00,
2013-07-12 13:29:00,83.7,41.6,29.70,North,0,0.0,0.0,23,0.00,,,0.00,WUHU216HW,2013-07-12 19:29:00,
2013-07-12 13:33:00,83.5,42.5,29.70,North,0,0.0,0.0,24,0.00,,,0.00,WUHU216HW,2013-07-12 19:33:00,
2013-07-12 13:35:00,83.3,42.4,29.70,North,0,0.0,0.0,24,0.00,,,0.00,WUHU216HW,2013-07-12 19:35:00,
2013-07-12 13:38:00,82.4,42.7,29.70,North,0,0.0,0.0,25,0.00,,,0.00,WUHU216HW,2013-07-12 19:38:00,
2013-07-12 13:39:00,82.3,42.5,29.70,North,0,0.0,0.0,25,0.00,,,0.00,WUHU216HW,2013-07-12 19:39:00,
2013-07-12 13:40:00,82.3,42.5,29.70,North,0,0.0,0.0,25,0.00,,,0.00,WUHU216HW,2013-07-12 19:40:00,
2013-07-12 13:41:00,82.1,42.4,29.70,North,0,0.0,0.0,25,0.00,,,0.00,WUHU216HW,2013-07-12 19:41:00,
2013-07-12 13:44:00,81.5,43.0,29.70,North,0,0.0,0.0,26,0.00,,,0.00,WUHU216HW,2013-07-12 19:44:00,
2013-07-12 13:45:00,81.4,42.8,29.70,North,0,0.0,0.0,26,0.00,,,0.00,WUHU216HW,2013-07-12 19:45:00,
2013-07-12 13:46:00,81.4,42.8,29.70,North,0,0.0,0.0,26,0.00,,,0.00,WUHU216HW,2013-07-12 19:46:00,
2013-07-12 13:49:00,81.5,43.0,29.70,North,0,0.0,0.0,26,0.00,,,0.00,WUHU216HW,2013-07-12 19:49:00,
2013-07-12 13:50:00,81.4,42.8,29.69,North,0,0.0,0.0,26,0.00,,,0.00,WUHU216HW,2013-07-12 19:50:00,
2013-07-12 13:51:00,81.4,42.8,29.69,North,0,0.0,0.0,26,0.00,,,0.00,WUHU216HW,2013-07-12 19:51:00,
2013-07-12 13:52:00,81.2,42.7,29.69,North,0,0.0,0.0,26,0.00,,,0.00,WUHU216HW,2013-07-12 19:52:00,
2013-07-12 13:55:00,81.7,43.1,29.70,North,0,0.0,0.0,26,0.00,,,0.00,WUHU216HW,2013-07-12 19:55:00,
2013-07-12 13:56:00,82.3,43.6,29.69,North,0,0.0,0.0,26,0.00,,,0.00,WUHU216HW,2013-07-12 19:56:00,
2013-07-12 13:58:00,82.4,43.8,29.69,North,0,0.0,0.0,26,0.00,,,0.00,WUHU216HW,2013-07-12 19:58:00,
2013-07-12 14:01:00,83.2,42.2,29.69,North,0,0.0,0.0,24,0.00,,,0.00,WUHU216HW,2013-07-12 20:01:00,
2013-07-12 14:03:00,83.5,42.5,29.69,North,0,0.0,0.0,24,0.00,,,0.00,WUHU216HW,2013-07-12 20:03:00,
2013-07-12 14:06:00,83.9,42.9,29.69,North,0,0.0,0.0,24,0.00,,,0.00,WUHU216HW,2013-07-12 20:06:00,
2013-07-12 14:07:00,83.9,42.9,29.69,North,0,0.0,0.0,24,0.00,,,0.00,WUHU216HW,2013-07-12 20:07:00,
2013-07-12 14:08:00,83.9,41.8,29.69,North,0,0.0,0.0,23,0.00,,,0.00,WUHU216HW,2013-07-12 20:08:00,
2013-07-12 14:11:00,83.2,43.3,29.69,North,0,0.0,0.0,25,0.00,,,0.00,WUHU216HW,2013-07-12 20:11:00,
2013-07-12 14:14:00,82.6,43.8,29.69,North,0,0.0,0.0,26,0.00,,,0.00,WUHU216HW,2013-07-12 20:14:00,
2013-07-12 14:17:00,81.4,43.9,29.70,North,0,0.0,0.0,27,0.00,,,0.00,WUHU216HW,2013-07-12 20:17:00,
2013-07-12 14:19:00,80.8,42.4,29.70,North,0,0.0,0.0,26,0.00,,,0.00,WUHU216HW,2013-07-12 20:19:00,
2013-07-12 14:20:00,80.6,42.3,29.70,North,0,0.0,0.0,26,0.00,,,0.00,WUHU216HW,2013-07-12 20:20:00,
2013-07-12 14:22:00,80.6,42.3,29.70,North,0,0.0,0.0,26,0.00,,,0.00,WUHU216HW,2013-07-12 20:22:00,
2013-07-12 14:25:00,80.6,44.4,29.70,North,0,0.0,0.0,28,0.00,,,0.00,WUHU216HW,2013-07-12 20:25:00,
2013-07-12 14:28:00,80.6,48.0,29.70,North,0,0.0,0.0,32,0.00,,,0.00,WUHU216HW,2013-07-12 20:28:00,
2013-07-12 14:30:00,80.8,52.8,29.70,North,0,0.0,0.0,38,0.00,,,0.00,WUHU216HW,2013-07-12 20:30:00,
2013-07-12 14:33:00,81.0,48.2,29.70,North,0,0.0,0.0,32,0.00,,,0.00,WUHU216HW,2013-07-12 20:33:00,
2013-07-12 14:35:00,81.7,48.9,29.69,North,0,0.0,0.0,32,0.00,,,0.00,WUHU216HW,2013-07-12 20:35:00,
2013-07-12 14:38:00,82.4,47.9,29.70,North,0,0.0,0.0,30,0.00,,,0.00,WUHU216HW,2013-07-12 20:38:00,
2013-07-12 14:40:00,83.0,46.3,29.70,North,0,0.0,0.0,28,0.00,,,0.00,WUHU216HW,2013-07-12 20:40:00,
2013-07-12 14:41:00,83.0,46.3,29.70,North,0,0.0,0.0,28,0.00,,,0.00,WUHU216HW,2013-07-12 20:41:00,
2013-07-12 14:44:00,83.3,44.5,29.70,North,0,0.0,0.0,26,0.00,,,0.00,WUHU216HW,2013-07-12 20:44:00,
2013-07-12 14:45:00,83.2,43.3,29.70,North,0,0.0,0.0,25,0.00,,,0.00,WUHU216HW,2013-07-12 20:45:00,
2013-07-12 14:46:00,83.3,44.5,29.70,North,0,0.0,0.0,26,0.00,,,0.00,WUHU216HW,2013-07-12 20:46:00,
2013-07-12 14:50:00,83.2,44.3,29.70,North,0,0.0,0.0,26,0.00,,,0.00,WUHU216HW,2013-07-12 20:50:00,
2013-07-12 14:51:00,83.0,44.2,29.70,North,0,0.0,0.0,26,0.00,,,0.00,WUHU216HW,2013-07-12 20:51:00,
2013-07-12 14:52:00,82.8,42.0,29.70,North,0,0.0,0.0,24,0.00,,,0.00,WUHU216HW,2013-07-12 20:52:00,
2013-07-12 14:55:00,81.7,42.1,29.69,North,0,0.0,0.0,25,0.00,,,0.00,WUHU216HW,2013-07-12 20:55:00,
2013-07-12 14:56:00,81.5,41.9,29.69,North,0,0.0,0.0,25,0.00,,,0.00,WUHU216HW,2013-07-12 20:56:00,
2013-07-12 14:59:00,80.8,42.4,29.70,North,0,0.0,0.0,26,0.00,,,0.00,WUHU216HW,2013-07-12 20:59:00,
2013-07-12 15:01:00,80.5,42.1,29.70,North,0,0.0,0.0,26,0.00,,,0.00,WUHU216HW,2013-07-12 21:01:00,
2013-07-12 15:04:00,80.5,44.2,29.70,North,0,0.0,0.0,28,0.00,,,0.00,WUHU216HW,2013-07-12 21:04:00,
2013-07-12 15:06:00,81.0,44.6,29.70,North,0,0.0,0.0,28,0.00,,,0.00,WUHU216HW,2013-07-12 21:06:00,
2013-07-12 15:07:00,81.2,45.8,29.70,North,0,9.6,9.6,29,0.00,,,0.00,WUHU216HW,2013-07-12 21:07:00,
2013-07-12 15:09:00,81.2,45.8,29.70,NNE,23,8.9,10.1,29,0.00,,,0.00,WUHU216HW,2013-07-12 21:09:00,
2013-07-12 15:11:00,81.2,44.8,29.70,North,0,8.3,11.0,28,0.00,,,0.00,WUHU216HW,2013-07-12 21:11:00,
2013-07-12 15:12:00,81.0,45.7,29.70,NNE,23,12.8,12.8,29,0.00,,,0.00,WUHU216HW,2013-07-12 21:12:00,
2013-07-12 15:14:00,80.6,44.4,29.70,NNW,338,4.7,12.8,28,0.00,,,0.00,WUHU216HW,2013-07-12 21:14:00,
2013-07-12 15:16:00,80.5,45.3,29.70,ENE,68,9.8,12.8,29,0.00,,,0.00,WUHU216HW,2013-07-12 21:16:00,
2013-07-12 15:17:00,80.3,44.0,29.70,ENE,68,9.2,12.8,28,0.00,,,0.00,WUHU216HW,2013-07-12 21:17:00,
2013-07-12 15:18:00,80.3,44.0,29.70,ENE,68,7.4,12.8,28,0.00,,,0.00,WUHU216HW,2013-07-12 21:18:00,
2013-07-12 15:20:00,80.1,43.8,29.70,NE,45,6.3,12.8,28,0.00,,,0.00,WUHU216HW,2013-07-12 21:20:00,
2013-07-12 15:21:00,79.9,43.8,29.70,ENE,68,4.3,12.8,28,0.00,,,0.00,WUHU216HW,2013-07-12 21:21:00,
2013-07-12 15:22:00,79.9,43.8,29.70,NNE,23,6.9,9.8,28,0.00,,,0.00,WUHU216HW,2013-07-12 21:22:00,
2013-07-12 15:23:00,79.9,43.8,29.70,North,0,8.5,9.8,28,0.00,,,0.00,WUHU216HW,2013-07-12 21:23:00,
2013-07-12 15:25:00,79.7,44.6,29.70,North,0,9.6,14.3,29,0.00,,,0.00,WUHU216HW,2013-07-12 21:25:00,
2013-07-12 15:27:00,79.6,45.5,29.70,North,0,6.3,14.3,30,0.00,,,0.00,WUHU216HW,2013-07-12 21:27:00,
2013-07-12 15:28:00,79.6,45.5,29.70,NNE,23,14.1,14.3,30,0.00,,,0.00,WUHU216HW,2013-07-12 21:28:00,
2013-07-12 15:32:00,78.1,45.8,29.71,North,0,12.1,20.1,32,0.00,,,0.00,WUHU216HW,2013-07-12 21:32:00,
2013-07-12 15:33:00,77.9,45.6,29.71,North,0,9.2,20.1,32,0.00,,,0.00,WUHU216HW,2013-07-12 21:33:00,
2013-07-12 15:37:00,77.2,47.4,29.71,North,0,6.7,20.1,35,0.00,,,0.00,WUHU216HW,2013-07-12 21:37:00,
2013-07-12 15:38:00,77.0,48.7,29.71,North,0,6.9,12.1,37,0.00,,,0.00,WUHU216HW,2013-07-12 21:38:00,
2013-07-12 15:42:00,76.1,51.4,29.71,North,0,4.9,9.2,42,0.01,,,0.01,WUHU216HW,2013-07-12 21:42:00,
2013-07-12 15:43:00,76.1,51.4,29.71,North,0,4.9,9.2,42,0.01,,,0.01,WUHU216HW,2013-07-12 21:43:00,
2013-07-12 15:48:00,75.6,51.5,29.71,North,0,4.5,7.6,43,0.02,,,0.02,WUHU216HW,2013-07-12 21:48:00,
2013-07-12 15:49:00,75.4,51.9,29.71,North,0,3.1,7.6,44,0.02,,,0.02,WUHU216HW,2013-07-12 21:49:00,
2013-07-12 15:52:00,74.9,49.6,29.70,North,0,5.4,7.6,41,0.02,,,0.02,WUHU216HW,2013-07-12 21:52:00,
2013-07-12 15:54:00,74.7,47.4,29.70,North,0,8.5,9.2,38,0.02,,,0.02,WUHU216HW,2013-07-12 21:54:00,
2013-07-12 15:57:00,74.7,47.4,29.70,North,0,8.5,9.2,38,0.02,,,0.02,WUHU216HW,2013-07-12 21:57:00,
2013-07-12 15:59:00,74.9,49.6,29.70,NNW,338,8.3,9.2,41,0.02,,,0.02,WUHU216HW,2013-07-12 21:59:00,
2013-07-12 16:00:00,75.1,49.1,29.70,NNW,338,9.4,9.4,40,0.02,,,0.02,WUHU216HW,2013-07-12 22:00:00,
2013-07-12 16:02:00,74.7,51.3,29.70,NNW,338,11.9,11.9,44,0.02,,,0.02,WUHU216HW,2013-07-12 22:02:00,
2013-07-12 16:05:00,73.1,49.8,29.71,NNW,338,14.1,14.1,44,0.03,,,0.03,WUHU216HW,2013-07-12 22:05:00,
2013-07-12 16:07:00,72.5,46.2,29.70,NW,315,10.5,14.1,39,0.03,,,0.03,WUHU216HW,2013-07-12 22:07:00,
2013-07-12 16:10:00,72.7,47.1,29.70,North,0,7.8,14.1,40,0.03,,,0.03,WUHU216HW,2013-07-12 22:10:00,
2013-07-12 16:11:00,72.9,46.4,29.70,NNW,338,6.9,14.1,39,0.03,,,0.03,WUHU216HW,2013-07-12 22:11:00,
2013-07-12 16:12:00,72.9,43.5,29.70,NNW,338,13.2,15.9,35,0.03,,,0.03,WUHU216HW,2013-07-12 22:12:00,
2013-07-12 16:17:00,73.6,51.5,29.71,NW,315,7.8,15.9,46,0.03,,,0.03,WUHU216HW,2013-07-12 22:17:00,
2013-07-12 16:18:00,73.1,51.6,29.71,WNW,293,8.5,15.9,47,0.03,,,0.03,WUHU216HW,2013-07-12 22:18:00,
2013-07-12 16:22:00,72.0,52.4,29.72,NNW,338,6.3,13.0,50,0.05,,,0.05,WUHU216HW,2013-07-12 22:22:00,
2013-07-12 16:23:00,72.0,52.8,29.72,NNW,338,8.1,11.2,51,0.05,,,0.05,WUHU216HW,2013-07-12 22:23:00,
2013-07-12 16:24:00,71.8,53.2,29.72,NW,315,7.6,9.8,52,0.05,,,0.05,WUHU216HW,2013-07-12 22:24:00,
2013-07-12 16:27:00,71.6,53.0,29.73,WSW,248,10.5,10.5,52,0.05,,,0.05,WUHU216HW,2013-07-12 22:27:00,
2013-07-12 16:28:00,71.6,54.0,29.73,WSW,248,12.5,12.5,54,0.05,,,0.05,WUHU216HW,2013-07-12 22:28:00,
2013-07-12 16:30:00,71.6,53.0,29.73,SW,225,11.4,14.1,52,0.05,,,0.05,WUHU216HW,2013-07-12 22:30:00,
2013-07-12 16:32:00,72.2,53.0,29.73,SSW,203,15.0,15.0,51,0.05,,,0.05,WUHU216HW,2013-07-12 22:32:00,
2013-07-12 16:33:00,72.2,53.0,29.73,SSW,203,15.0,15.0,51,0.05,,,0.05,WUHU216HW,2013-07-12 22:33:00,
2013-07-12 16:35:00,73.4,53.6,29.71,SSW,203,6.3,15.0,50,0.05,,,0.05,WUHU216HW,2013-07-12 22:35:00,
2013-07-12 16:37:00,74.2,53.7,29.71,WSW,248,2.7,15.0,49,0.05,,,0.05,WUHU216HW,2013-07-12 22:37:00,
2013-07-12 16:38:00,74.2,53.7,29.71,WSW,248,2.7,15.0,49,0.05,,,0.05,WUHU216HW,2013-07-12 22:38:00,
2013-07-12 16:41:00,75.6,50.9,29.71,West,270,4.7,15.0,42,0.04,,,0.05,WUHU216HW,2013-07-12 22:41:00,
2013-07-12 16:43:00,76.1,46.4,29.71,WNW,293,2.5,11.4,35,0.04,,,0.05,WUHU216HW,2013-07-12 22:43:00,
2013-07-12 16:44:00,76.3,45.7,29.70,WNW,293,4.0,8.5,34,0.04,,,0.05,WUHU216HW,2013-07-12 22:44:00,
2013-07-12 16:46:00,76.9,48.5,29.70,NNW,338,7.6,7.6,37,0.04,,,0.05,WUHU216HW,2013-07-12 22:46:00,
2013-07-12 16:48:00,77.4,49.8,29.70,NNW,338,9.8,9.8,38,0.03,,,0.05,WUHU216HW,2013-07-12 22:48:00,
2013-07-12 16:49:00,77.4,49.0,29.70,NW,315,8.1,9.8,37,0.03,,,0.05,WUHU216HW,2013-07-12 22:49:00,
2013-07-12 16:51:00,77.8,47.8,29.70,NW,315,6.7,9.8,35,0.03,,,0.05,WUHU216HW,2013-07-12 22:51:00,
2013-07-12 16:53:00,77.6,48.4,29.70,NW,315,7.4,9.8,36,0.03,,,0.05,WUHU216HW,2013-07-12 22:53:00,
2013-07-12 16:54:00,77.8,48.5,29.70,NW,315,8.1,9.8,36,0.03,,,0.05,WUHU216HW,2013-07-12 22:54:00,
2013-07-12 16:57:00,77.9,48.0,29.70,NNW,338,6.7,9.8,35,0.03,,,0.05,WUHU216HW,2013-07-12 22:57:00,
2013-07-12 16:58:00,78.1,48.1,29.70,WNW,293,5.4,9.6,35,0.03,,,0.05,WUHU216HW,2013-07-12 22:58:00,
2013-07-12 17:00:00,78.1,48.9,29.70,NNW,338,5.1,9.6,36,0.03,,,0.05,WUHU216HW,2013-07-12 23:00:00,
2013-07-12 17:01:00,78.5,46.1,29.70,North,0,4.5,9.6,32,0.02,,,0.05,WUHU216HW,2013-07-12 23:01:00,
2013-07-12 17:02:00,78.7,45.5,29.70,North,0,4.0,9.6,31,0.02,,,0.05,WUHU216HW,2013-07-12 23:02:00,
2013-07-12 17:03:00,78.8,47.2,29.70,NNW,338,4.7,9.6,33,0.02,,,0.05,WUHU216HW,2013-07-12 23:03:00,
2013-07-12 17:05:00,78.8,47.2,29.70,NNW,338,4.0,9.6,33,0.02,,,0.05,WUHU216HW,2013-07-12 23:05:00,
2013-07-12 17:06:00,78.8,47.2,29.70,NNW,338,4.7,9.6,33,0.02,,,0.05,WUHU216HW,2013-07-12 23:06:00,
2013-07-12 17:08:00,79.2,46.7,29.70,North,0,2.7,6.7,32,0.02,,,0.05,WUHU216HW,2013-07-12 23:08:00,
2013-07-12 17:09:00,79.6,47.0,29.70,NNE,23,2.9,6.7,32,0.02,,,0.05,WUHU216HW,2013-07-12 23:09:00,
2013-07-12 17:11:00,79.6,45.5,29.70,North,0,1.8,6.0,30,0.02,,,0.05,WUHU216HW,2013-07-12 23:11:00,
2013-07-12 17:12:00,79.7,47.2,29.70,NE,45,2.7,6.0,32,0.02,,,0.05,WUHU216HW,2013-07-12 23:12:00,
2013-07-12 17:14:00,80.1,47.5,29.70,NNE,23,9.8,9.8,32,0.02,,,0.05,WUHU216HW,2013-07-12 23:14:00,
2013-07-12 17:16:00,80.3,47.7,29.70,North,0,6.3,9.8,32,0.02,,,0.05,WUHU216HW,2013-07-12 23:16:00,
2013-07-12 17:18:00,80.1,46.0,29.70,North,0,2.0,9.8,30,0.02,,,0.05,WUHU216HW,2013-07-12 23:18:00,
2013-07-12 17:19:00,80.1,47.5,29.71,NNE,23,3.1,9.8,32,0.00,,,0.05,WUHU216HW,2013-07-12 23:19:00,
2013-07-12 17:22:00,80.3,45.1,29.71,NNW,338,2.2,9.8,29,0.00,,,0.05,WUHU216HW,2013-07-12 23:22:00,
2013-07-12 17:24:00,80.5,46.3,29.70,North,0,3.8,9.8,30,0.00,,,0.05,WUHU216HW,2013-07-12 23:24:00,
2013-07-12 17:26:00,80.8,46.6,29.70,North,0,2.7,7.4,30,0.00,,,0.05,WUHU216HW,2013-07-12 23:26:00,
2013-07-12 17:27:00,80.8,46.6,29.70,NNW,338,2.2,7.4,30,0.00,,,0.05,WUHU216HW,2013-07-12 23:27:00,
2013-07-12 17:30:00,81.0,47.5,29.70,ESE,113,7.4,9.8,31,0.00,,,0.05,WUHU216HW,2013-07-12 23:30:00,
2013-07-12 17:31:00,81.0,46.7,29.70,East,90,8.9,9.8,30,0.00,,,0.05,WUHU216HW,2013-07-12 23:31:00,
2013-07-12 17:32:00,80.8,47.3,29.70,East,90,6.3,9.8,31,0.00,,,0.05,WUHU216HW,2013-07-12 23:32:00,
2013-07-12 17:33:00,80.8,48.2,29.70,ENE,68,9.2,9.8,32,0.00,,,0.05,WUHU216HW,2013-07-12 23:33:00,
2013-07-12 17:36:00,80.3,47.7,29.70,East,90,5.4,9.8,32,0.00,,,0.05,WUHU216HW,2013-07-12 23:36:00,
2013-07-12 17:38:00,80.3,47.7,29.70,East,90,5.6,9.8,32,0.00,,,0.05,WUHU216HW,2013-07-12 23:38:00,
2013-07-12 17:39:00,80.3,47.7,29.70,East,90,5.6,9.8,32,0.00,,,0.05,WUHU216HW,2013-07-12 23:39:00,
2013-07-12 17:42:00,80.1,46.7,29.70,ENE,68,6.0,9.2,31,0.00,,,0.05,WUHU216HW,2013-07-12 23:42:00,
2013-07-12 17:43:00,79.7,47.2,29.70,ENE,68,5.1,9.2,32,0.00,,,0.05,WUHU216HW,2013-07-12 23:43:00,
2013-07-12 17:45:00,79.6,47.8,29.70,East,90,4.7,7.4,33,0.00,,,0.05,WUHU216HW,2013-07-12 23:45:00,
2013-07-12 17:47:00,79.2,46.7,29.70,ENE,68,6.3,7.4,32,0.00,,,0.05,WUHU216HW,2013-07-12 23:47:00,
2013-07-12 17:49:00,79.2,47.4,29.70,East,90,6.5,7.4,33,0.00,,,0.05,WUHU216HW,2013-07-12 23:49:00,
2013-07-12 17:51:00,78.8,47.9,29.70,ENE,68,4.5,7.4,34,0.00,,,0.05,WUHU216HW,2013-07-12 23:51:00,
2013-07-12 17:53:00,78.5,46.8,29.70,ESE,113,4.5,7.4,33,0.00,,,0.05,WUHU216HW,2013-07-12 23:53:00,
2013-07-12 17:54:00,78.5,46.8,29.70,ESE,113,3.8,7.4,33,0.00,,,0.05,WUHU216HW,2013-07-12 23:54:00,
2013-07-12 17:58:00,78.3,48.3,29.71,SE,135,4.7,6.7,35,0.00,,,0.05,WUHU216HW,2013-07-12 23:58:00,
2013-07-12 17:59:00,78.3,48.3,29.71,SSE,158,2.9,6.5,35,0.00,,,0.05,WUHU216HW,2013-07-12 23:59:00,
2013-07-12 18:03:00,78.5,48.4,29.72,NW,315,6.5,6.5,35,0.00,,,0.05,WUHU216HW,2013-07-13 00:03:00,
2013-07-12 18:04:00,78.3,45.9,29.72,WSW,248,4.7,7.2,32,0.00,,,0.05,WUHU216HW,2013-07-13 00:04:00,
2013-07-12 18:05:00,78.1,45.8,29.71,NNW,338,6.9,7.2,32,0.00,,,0.05,WUHU216HW,2013-07-13 00:05:00,
2013-07-12 18:09:00,77.4,49.0,29.72,NW,315,7.2,8.3,37,0.00,,,0.05,WUHU216HW,2013-07-13 00:09:00,
2013-07-12 18:10:00,77.2,51.8,29.72,NW,315,9.4,9.4,41,0.00,,,0.05,WUHU216HW,2013-07-13 00:10:00,
2013-07-12 18:11:00,77.0,53.4,29.72,NNW,338,14.3,14.3,44,0.00,,,0.05,WUHU216HW,2013-07-13 00:11:00,
2013-07-12 18:16:00,73.3,52.9,29.72,North,0,6.3,16.3,49,0.01,,,0.06,WUHU216HW,2013-07-13 00:16:00,
2013-07-12 18:17:00,73.1,50.9,29.72,North,0,7.4,16.3,46,0.01,,,0.06,WUHU216HW,2013-07-13 00:17:00,
2013-07-12 18:18:00,72.5,49.2,29.72,North,0,5.8,16.3,44,0.01,,,0.06,WUHU216HW,2013-07-13 00:18:00,
2013-07-12 18:21:00,72.7,48.2,29.72,NNE,23,6.5,16.3,42,0.01,,,0.06,WUHU216HW,2013-07-13 00:21:00,
2013-07-12 18:22:00,72.9,47.8,29.72,North,0,6.9,16.3,41,0.01,,,0.06,WUHU216HW,2013-07-13 00:22:00,
2013-07-12 18:24:00,73.1,52.1,29.72,NNE,23,5.6,12.1,48,0.01,,,0.06,WUHU216HW,2013-07-13 00:24:00,
2013-07-12 18:27:00,73.1,48.0,29.72,North,0,2.9,8.9,41,0.01,,,0.06,WUHU216HW,2013-07-13 00:27:00,
2013-07-12 18:29:00,73.3,51.1,29.73,NNE,23,5.1,8.9,46,0.01,,,0.06,WUHU216HW,2013-07-13 00:29:00,
2013-07-12 18:32:00,73.3,52.3,29.73,NNE,23,2.2,8.3,48,0.01,,,0.06,WUHU216HW,2013-07-13 00:32:00,
2013-07-12 18:33:00,73.3,52.3,29.73,NNE,23,2.2,8.3,48,0.01,,,0.06,WUHU216HW,2013-07-13 00:33:00,
2013-07-12 18:35:00,73.3,51.7,29.73,NE,45,1.8,6.3,47,0.01,,,0.06,WUHU216HW,2013-07-13 00:35:00,
2013-07-12 18:38:00,73.4,51.3,29.74,East,90,4.9,5.1,46,0.01,,,0.06,WUHU216HW,2013-07-13 00:38:00,
2013-07-12 18:40:00,73.4,50.0,29.74,East,90,8.7,8.7,44,0.01,,,0.06,WUHU216HW,2013-07-13 00:40:00,
2013-07-12 18:43:00,73.3,48.7,29.74,ENE,68,8.5,11.6,42,0.01,,,0.06,WUHU216HW,2013-07-13 00:43:00,
2013-07-12 18:45:00,72.9,49.6,29.74,South,180,6.3,11.6,44,0.01,,,0.06,WUHU216HW,2013-07-13 00:45:00,
2013-07-12 18:46:00,72.9,49.6,29.74,SSE,158,11.4,11.6,44,0.01,,,0.06,WUHU216HW,2013-07-13 00:46:00,
2013-07-12 18:50:00,72.5,49.9,29.75,SW,225,6.9,11.6,45,0.01,,,0.06,WUHU216HW,2013-07-13 00:50:00,
2013-07-12 18:51:00,72.5,50.5,29.74,SSW,203,8.3,11.6,46,0.02,,,0.07,WUHU216HW,2013-07-13 00:51:00,
2013-07-12 18:55:00,72.7,52.4,29.74,South,180,7.6,11.4,49,0.02,,,0.07,WUHU216HW,2013-07-13 00:55:00,
2013-07-12 18:56:00,72.7,52.4,29.74,SSE,158,5.4,11.4,49,0.02,,,0.07,WUHU216HW,2013-07-13 00:56:00,
2013-07-12 19:00:00,73.4,53.6,29.72,ESE,113,3.4,10.5,50,0.02,,,0.07,WUHU216HW,2013-07-13 01:00:00,
2013-07-12 19:02:00,73.8,52.8,29.72,ESE,113,3.4,10.5,48,0.02,,,0.07,WUHU216HW,2013-07-13 01:02:00,
2013-07-12 19:05:00,74.5,52.3,29.71,ESE,113,1.8,7.6,46,0.02,,,0.07,WUHU216HW,2013-07-13 01:05:00,
2013-07-12 19:07:00,75.2,51.8,29.71,East,90,4.9,6.9,44,0.02,,,0.07,WUHU216HW,2013-07-13 01:07:00,
2013-07-12 19:10:00,75.4,51.9,29.72,ESE,113,1.8,6.9,44,0.02,,,0.07,WUHU216HW,2013-07-13 01:10:00,
2013-07-12 19:11:00,75.4,51.9,29.72,ESE,113,1.6,6.9,44,0.02,,,0.07,WUHU216HW,2013-07-13 01:11:00,
2013-07-12 19:12:00,75.4,52.6,29.72,SE,135,1.8,5.4,45,0.01,,,0.07,WUHU216HW,2013-07-13 01:12:00,
2013-07-12 19:13:00,75.4,52.6,29.72,SSE,158,1.6,5.4,45,0.01,,,0.07,WUHU216HW,2013-07-13 01:13:00,
2013-07-12 19:16:00,75.4,52.6,29.72,SW,225,6.5,9.8,45,0.01,,,0.07,WUHU216HW,2013-07-13 01:16:00,
2013-07-12 19:19:00,75.1,53.5,29.72,WSW,248,8.1,9.8,47,0.01,,,0.07,WUHU216HW,2013-07-13 01:19:00,
2013-07-12 19:21:00,74.5,52.3,29.72,WSW,248,6.9,9.8,46,0.01,,,0.07,WUHU216HW,2013-07-13 01:21:00,
2013-07-12 19:22:00,74.3,52.1,29.72,WSW,248,6.0,9.8,46,0.01,,,0.07,WUHU216HW,2013-07-13 01:22:00,
2013-07-12 19:24:00,73.8,52.8,29.73,WSW,248,7.4,9.8,48,0.01,,,0.07,WUHU216HW,2013-07-13 01:24:00,
2013-07-12 19:25:00,73.8,52.8,29.73,WSW,248,6.5,9.8,48,0.01,,,0.07,WUHU216HW,2013-07-13 01:25:00,
2013-07-12 19:27:00,73.3,52.9,29.73,WSW,248,7.6,9.2,49,0.01,,,0.07,WUHU216HW,2013-07-13 01:27:00,
2013-07-12 19:28:00,72.7,52.4,29.73,WSW,248,5.4,9.2,49,0.01,,,0.07,WUHU216HW,2013-07-13 01:28:00,
2013-07-12 19:30:00,72.5,52.2,29.73,WSW,248,6.3,7.8,49,0.01,,,0.07,WUHU216HW,2013-07-13 01:30:00,
2013-07-12 19:32:00,72.4,52.7,29.73,WSW,248,4.5,7.8,50,0.01,,,0.07,WUHU216HW,2013-07-13 01:32:00,
2013-07-12 19:34:00,72.2,52.5,29.73,West,270,5.4,7.8,50,0.01,,,0.07,WUHU216HW,2013-07-13 01:34:00,
2013-07-12 19:35:00,72.0,52.4,29.73,West,270,6.3,7.8,50,0.01,,,0.07,WUHU216HW,2013-07-13 01:35:00,
2013-07-12 19:38:00,71.6,52.0,29.72,WSW,248,4.3,7.2,50,0.01,,,0.07,WUHU216HW,2013-07-13 01:38:00,
2013-07-12 19:39:00,71.6,52.0,29.72,West,270,5.1,7.2,50,0.01,,,0.07,WUHU216HW,2013-07-13 01:39:00,
2013-07-12 19:42:00,71.5,51.3,29.72,WSW,248,10.7,10.7,49,0.01,,,0.07,WUHU216HW,2013-07-13 01:42:00,
2013-07-12 19:44:00,71.3,52.2,29.72,West,270,7.6,10.7,51,0.01,,,0.07,WUHU216HW,2013-07-13 01:44:00,
2013-07-12 19:46:00,71.1,51.6,29.72,West,270,8.1,10.7,50,0.01,,,0.07,WUHU216HW,2013-07-13 01:46:00,
2013-07-12 19:47:00,71.3,51.7,29.72,West,270,4.9,10.7,50,0.01,,,0.07,WUHU216HW,2013-07-13 01:47:00,
2013-07-12 19:50:00,70.9,52.9,29.72,WSW,248,14.3,14.3,53,0.01,,,0.07,WUHU216HW,2013-07-13 01:50:00,
2013-07-12 19:52:00,70.6,51.6,29.72,West,270,12.1,14.3,51,0.00,,,0.07,WUHU216HW,2013-07-13 01:52:00,
2013-07-12 19:55:00,70.4,51.9,29.72,WNW,293,6.0,14.3,52,0.00,,,0.07,WUHU216HW,2013-07-13 01:55:00,
2013-07-12 19:58:00,70.4,51.4,29.72,West,270,9.2,14.3,51,0.00,,,0.07,WUHU216HW,2013-07-13 01:58:00,
2013-07-12 20:00:00,70.9,52.4,29.72,West,270,7.6,13.4,52,0.00,,,0.07,WUHU216HW,2013-07-13 02:00:00,
2013-07-12 20:03:00,71.6,53.0,29.71,WSW,248,7.4,11.6,52,0.00,,,0.07,WUHU216HW,2013-07-13 02:03:00,
2013-07-12 20:04:00,72.0,53.4,29.71,WSW,248,5.4,10.5,52,0.00,,,0.07,WUHU216HW,2013-07-13 02:04:00,
2013-07-12 20:05:00,72.4,53.2,29.71,West,270,7.4,10.5,51,0.00,,,0.07,WUHU216HW,2013-07-13 02:05:00,
2013-07-12 20:08:00,72.7,53.5,29.72,WSW,248,6.5,10.1,51,0.00,,,0.07,WUHU216HW,2013-07-13 02:08:00,
2013-07-12 20:09:00,72.9,53.6,29.72,WSW,248,5.6,9.4,51,0.00,,,0.07,WUHU216HW,2013-07-13 02:09:00,
2013-07-12 20:11:00,73.4,53.6,29.72,WSW,248,6.7,9.4,50,0.00,,,0.07,WUHU216HW,2013-07-13 02:11:00,
2013-07-12 20:13:00,74.3,53.9,29.72,West,270,5.4,8.5,49,0.00,,,0.07,WUHU216HW,2013-07-13 02:13:00,
2013-07-12 20:14:00,74.3,53.9,29.72,WSW,248,5.1,8.5,49,0.00,,,0.07,WUHU216HW,2013-07-13 02:14:00,
2013-07-12 20:18:00,75.4,53.2,29.72,West,270,6.3,7.8,46,0.00,,,0.07,WUHU216HW,2013-07-13 02:18:00,
2013-07-12 20:19:00,75.6,52.8,29.72,WNW,293,6.0,7.8,45,0.00,,,0.07,WUHU216HW,2013-07-13 02:19:00,
2013-07-12 20:23:00,74.9,51.4,29.72,NW,315,4.9,6.9,44,0.00,,,0.07,WUHU216HW,2013-07-13 02:23:00,
2013-07-12 20:24:00,74.9,51.4,29.72,NW,315,4.3,6.9,44,0.00,,,0.07,WUHU216HW,2013-07-13 02:24:00,
2013-07-12 20:25:00,74.9,51.4,29.73,NW,315,3.8,6.9,44,0.00,,,0.07,WUHU216HW,2013-07-13 02:25:00,
2013-07-12 20:29:00,74.9,52.0,29.73,NW,315,4.5,5.6,45,0.00,,,0.07,WUHU216HW,2013-07-13 02:29:00,
2013-07-12 20:30:00,74.9,51.4,29.73,NW,315,3.4,5.6,44,0.00,,,0.07,WUHU216HW,2013-07-13 02:30:00,
2013-07-12 20:34:00,75.4,51.9,29.73,NNE,23,0.9,4.7,44,0.00,,,0.07,WUHU216HW,2013-07-13 02:34:00,
2013-07-12 20:35:00,75.4,51.9,29.73,NNE,23,0.9,4.5,44,0.00,,,0.07,WUHU216HW,2013-07-13 02:35:00,
2013-07-12 20:36:00,75.4,51.9,29.73,ENE,68,1.1,4.5,44,0.00,,,0.07,WUHU216HW,2013-07-13 02:36:00,
2013-07-12 20:40:00,75.4,51.3,29.74,North,0,1.3,2.9,43,0.00,,,0.07,WUHU216HW,2013-07-13 02:40:00,
2013-07-12 20:41:00,75.2,51.1,29.74,WNW,293,2.5,2.5,43,0.00,,,0.07,WUHU216HW,2013-07-13 02:41:00,
2013-07-12 20:42:00,75.1,49.8,29.74,WNW,293,2.5,3.8,41,0.00,,,0.07,WUHU216HW,2013-07-13 02:42:00,
2013-07-12 20:45:00,74.2,49.6,29.74,WNW,293,2.5,4.5,42,0.00,,,0.07,WUHU216HW,2013-07-13 02:45:00,
2013-07-12 20:46:00,73.8,48.6,29.74,NW,315,3.8,4.5,41,0.00,,,0.07,WUHU216HW,2013-07-13 02:46:00,
2013-07-12 20:48:00,73.1,48.0,29.73,NW,315,4.7,5.4,41,0.00,,,0.07,WUHU216HW,2013-07-13 02:48:00,
2013-07-12 20:50:00,72.4,49.2,29.73,NW,315,4.7,5.4,44,0.00,,,0.07,WUHU216HW,2013-07-13 02:50:00,
2013-07-12 20:51:00,72.2,50.1,29.73,WNW,293,5.4,5.4,46,0.00,,,0.07,WUHU216HW,2013-07-13 02:51:00,
2013-07-12 20:52:00,71.6,49.7,29.73,WNW,293,5.6,5.6,46,0.00,,,0.07,WUHU216HW,2013-07-13 02:52:00,
2013-07-12 20:54:00,71.1,49.8,29.73,WNW,293,8.1,8.1,47,0.00,,,0.07,WUHU216HW,2013-07-13 02:54:00,
2013-07-12 20:56:00,70.0,50.0,29.73,NW,315,8.5,9.2,49,0.00,,,0.07,WUHU216HW,2013-07-13 02:56:00,
2013-07-12 20:57:00,70.0,50.0,29.73,NW,315,8.5,9.2,49,0.00,,,0.07,WUHU216HW,2013-07-13 02:57:00,
2013-07-12 20:59:00,69.5,46.5,29.73,NNW,338,12.8,15.7,44,0.00,,,0.07,WUHU216HW,2013-07-13 02:59:00,
2013-07-12 21:01:00,69.7,47.3,29.73,NNW,338,11.0,15.7,45,0.00,,,0.07,WUHU216HW,2013-07-13 03:01:00,
2013-07-12 21:02:00,69.7,47.3,29.72,NNW,338,12.8,15.7,45,0.00,,,0.07,WUHU216HW,2013-07-13 03:02:00,
2013-07-12 21:03:00,69.5,46.5,29.72,NNW,338,11.0,15.7,44,0.00,,,0.07,WUHU216HW,2013-07-13 03:03:00,
2013-07-12 21:04:00,69.5,45.9,29.72,NNW,338,15.2,15.7,43,0.00,,,0.07,WUHU216HW,2013-07-13 03:04:00,
2013-07-12 21:07:00,69.5,46.5,29.73,NW,315,8.5,17.0,44,0.00,,,0.07,WUHU216HW,2013-07-13 03:07:00,
2013-07-12 21:08:00,69.3,46.4,29.73,NW,315,8.3,17.0,44,0.00,,,0.07,WUHU216HW,2013-07-13 03:08:00,
2013-07-12 21:09:00,69.1,46.2,29.73,NW,315,12.5,17.0,44,0.00,,,0.07,WUHU216HW,2013-07-13 03:09:00,
2013-07-12 21:12:00,69.1,45.6,29.73,NW,315,8.7,17.0,43,0.00,,,0.07,WUHU216HW,2013-07-13 03:12:00,
2013-07-12 21:13:00,69.1,45.6,29.73,NNW,338,12.8,17.0,43,0.00,,,0.07,WUHU216HW,2013-07-13 03:13:00,
2013-07-12 21:14:00,69.1,46.2,29.73,NW,315,11.6,15.4,44,0.00,,,0.07,WUHU216HW,2013-07-13 03:14:00,
2013-07-12 21:17:00,68.9,46.0,29.74,NW,315,9.6,12.8,44,0.00,,,0.07,WUHU216HW,2013-07-13 03:17:00,
2013-07-12 21:18:00,68.8,45.9,29.74,NW,315,9.2,12.8,44,0.00,,,0.07,WUHU216HW,2013-07-13 03:18:00,
2013-07-12 21:19:00,68.8,45.9,29.74,NNW,338,9.2,12.8,44,0.00,,,0.07,WUHU216HW,2013-07-13 03:19:00,
2013-07-12 21:20:00,68.8,45.3,29.74,WNW,293,9.4,12.8,43,0.00,,,0.07,WUHU216HW,2013-07-13 03:20:00,
2013-07-12 21:22:00,68.6,45.7,29.74,NW,315,11.4,12.8,44,0.00,,,0.07,WUHU216HW,2013-07-13 03:22:00,
2013-07-12 21:24:00,68.6,45.7,29.74,NNW,338,8.7,11.9,44,0.00,,,0.07,WUHU216HW,2013-07-13 03:24:00,
2013-07-12 21:25:00,68.4,44.9,29.74,NNW,338,8.9,11.9,43,0.00,,,0.07,WUHU216HW,2013-07-13 03:25:00,
2013-07-12 21:26:00,68.4,45.5,29.74,NW,315,11.9,11.9,44,0.00,,,0.07,WUHU216HW,2013-07-13 03:26:00,
2013-07-12 21:30:00,68.4,44.9,29.74,WNW,293,7.6,13.6,43,0.00,,,0.07,WUHU216HW,2013-07-13 03:30:00,
2013-07-12 21:31:00,68.4,44.9,29.74,NW,315,7.2,13.6,43,0.00,,,0.07,WUHU216HW,2013-07-13 03:31:00,
2013-07-12 21:35:00,68.2,44.8,29.74,NNW,338,7.6,13.6,43,0.00,,,0.07,WUHU216HW,2013-07-13 03:35:00,
2013-07-12 21:37:00,68.0,45.2,29.74,NW,315,7.4,13.6,44,0.00,,,0.07,WUHU216HW,2013-07-13 03:37:00,
2013-07-12 21:38:00,68.0,45.2,29.75,WNW,293,10.3,11.9,44,0.00,,,0.07,WUHU216HW,2013-07-13 03:38:00,
2013-07-12 21:40:00,67.9,45.1,29.75,WNW,293,9.2,11.9,44,0.00,,,0.07,WUHU216HW,2013-07-13 03:40:00,
2013-07-12 21:42:00,67.9,44.5,29.75,WNW,293,8.5,11.9,43,0.00,,,0.07,WUHU216HW,2013-07-13 03:42:00,
2013-07-12 21:44:00,67.7,44.9,29.75,WNW,293,10.3,11.4,44,0.00,,,0.07,WUHU216HW,2013-07-13 03:44:00,
2013-07-12 21:45:00,67.7,44.9,29.75,WNW,293,8.7,11.4,44,0.00,,,0.07,WUHU216HW,2013-07-13 03:45:00,
2013-07-12 21:48:00,67.3,45.2,29.75,WNW,293,7.8,11.4,45,0.00,,,0.07,WUHU216HW,2013-07-13 03:48:00,
2013-07-12 21:49:00,67.3,45.2,29.75,WNW,293,8.3,11.4,45,0.00,,,0.07,WUHU216HW,2013-07-13 03:49:00,
2013-07-12 21:51:00,67.1,45.0,29.75,WNW,293,8.5,11.4,45,0.00,,,0.07,WUHU216HW,2013-07-13 03:51:00,
2013-07-12 21:52:00,67.0,45.5,29.75,WNW,293,8.7,11.4,46,0.00,,,0.07,WUHU216HW,2013-07-13 03:52:00,
2013-07-12 21:53:00,67.0,45.5,29.75,WNW,293,8.7,10.3,46,0.00,,,0.07,WUHU216HW,2013-07-13 03:53:00,
2013-07-12 21:56:00,66.8,44.6,29.75,WNW,293,8.5,10.5,45,0.00,,,0.07,WUHU216HW,2013-07-13 03:56:00,
2013-07-12 21:58:00,66.8,44.6,29.75,WNW,293,7.8,10.5,45,0.00,,,0.07,WUHU216HW,2013-07-13 03:58:00,
2013-07-12 21:59:00,66.8,44.6,29.75,NW,315,7.4,10.5,45,0.00,,,0.07,WUHU216HW,2013-07-13 03:59:00,
2013-07-12 22:01:00,66.6,44.6,29.75,WNW,293,8.9,10.5,45,0.00,,,0.07,WUHU216HW,2013-07-13 04:01:00,
2013-07-12 22:02:00,66.6,44.6,29.75,WNW,293,10.7,12.1,45,0.00,,,0.07,WUHU216HW,2013-07-13 04:02:00,
2013-07-12 22:06:00,66.6,44.6,29.75,WNW,293,9.2,12.1,45,0.00,,,0.07,WUHU216HW,2013-07-13 04:06:00,
2013-07-12 22:07:00,66.6,44.6,29.75,NW,315,12.1,12.1,45,0.00,,,0.07,WUHU216HW,2013-07-13 04:07:00,
2013-07-12 22:11:00,66.4,44.4,29.75,NW,315,10.1,13.6,45,0.00,,,0.07,WUHU216HW,2013-07-13 04:11:00,
2013-07-12 22:12:00,66.2,44.2,29.75,WNW,293,11.9,13.6,45,0.00,,,0.07,WUHU216HW,2013-07-13 04:12:00,
2013-07-12 22:16:00,65.9,44.5,29.75,NW,315,8.3,13.6,46,0.00,,,0.07,WUHU216HW,2013-07-13 04:16:00,
2013-07-12 22:17:00,65.9,44.5,29.75,WNW,293,6.9,13.6,46,0.00,,,0.07,WUHU216HW,2013-07-13 04:17:00,
2013-07-12 22:21:00,65.9,43.8,29.75,WNW,293,8.7,11.9,45,0.00,,,0.07,WUHU216HW,2013-07-13 04:21:00,
2013-07-12 22:22:00,65.9,43.8,29.75,WNW,293,8.7,11.9,45,0.00,,,0.07,WUHU216HW,2013-07-13 04:22:00,
2013-07-12 22:26:00,66.2,43.0,29.75,NW,315,12.1,12.1,43,0.00,,,0.07,WUHU216HW,2013-07-13 04:26:00,
2013-07-12 22:27:00,66.4,43.2,29.75,NW,315,9.8,13.0,43,0.00,,,0.07,WUHU216HW,2013-07-13 04:27:00,
2013-07-12 22:28:00,66.4,43.2,29.75,WNW,293,12.1,13.0,43,0.00,,,0.07,WUHU216HW,2013-07-13 04:28:00,
2013-07-12 22:32:00,66.6,43.3,29.75,NW,315,9.2,13.0,43,0.00,,,0.07,WUHU216HW,2013-07-13 04:32:00,
2013-07-12 22:33:00,66.6,43.3,29.75,NW,315,10.5,13.0,43,0.00,,,0.07,WUHU216HW,2013-07-13 04:33:00,
2013-07-12 22:37:00,66.4,43.2,29.75,WNW,293,8.5,12.8,43,0.00,,,0.07,WUHU216HW,2013-07-13 04:37:00,
2013-07-12 22:38:00,66.4,43.2,29.75,NW,315,9.4,12.1,43,0.00,,,0.07,WUHU216HW,2013-07-13 04:38:00,
2013-07-12 22:42:00,66.4,43.2,29.75,NW,315,6.5,10.7,43,0.00,,,0.07,WUHU216HW,2013-07-13 04:42:00,
2013-07-12 22:43:00,66.4,43.2,29.75,NNW,338,7.4,10.7,43,0.00,,,0.07,WUHU216HW,2013-07-13 04:43:00,
2013-07-12 22:48:00,65.9,43.3,29.76,NNW,338,5.6,9.4,44,0.00,,,0.07,WUHU216HW,2013-07-13 04:48:00,
2013-07-12 22:49:00,65.9,42.7,29.76,NNW,338,4.7,9.2,43,0.00,,,0.07,WUHU216HW,2013-07-13 04:49:00,
2013-07-12 22:53:00,65.5,42.9,29.76,NNW,338,6.7,7.8,44,0.00,,,0.07,WUHU216HW,2013-07-13 04:53:00,
2013-07-12 22:54:00,65.5,42.9,29.76,WNW,293,5.4,7.8,44,0.00,,,0.07,WUHU216HW,2013-07-13 04:54:00,
2013-07-12 22:58:00,65.3,42.8,29.76,WNW,293,6.0,7.8,44,0.00,,,0.07,WUHU216HW,2013-07-13 04:58:00,
2013-07-12 22:59:00,65.5,43.5,29.76,West,270,4.7,6.9,45,0.00,,,0.07,WUHU216HW,2013-07-13 04:59:00,
2013-07-12 23:03:00,65.0,43.6,29.76,West,270,5.1,6.9,46,0.00,,,0.07,WUHU216HW,2013-07-13 05:03:00,
2013-07-12 23:05:00,64.8,45.2,29.76,West,270,9.2,9.2,49,0.00,,,0.07,WUHU216HW,2013-07-13 05:05:00,
2013-07-12 23:08:00,64.3,45.2,29.76,West,270,9.8,10.5,50,0.00,,,0.07,WUHU216HW,2013-07-13 05:08:00,
2013-07-12 23:09:00,64.1,45.6,29.76,West,270,10.5,10.5,51,0.00,,,0.07,WUHU216HW,2013-07-13 05:09:00,
2013-07-12 23:10:00,63.9,45.4,29.76,WSW,248,9.8,10.5,51,0.00,,,0.07,WUHU216HW,2013-07-13 05:10:00,
2013-07-12 23:13:00,63.9,45.4,29.76,WSW,248,11.4,12.3,51,0.00,,,0.07,WUHU216HW,2013-07-13 05:13:00,
2013-07-12 23:14:00,63.9,44.9,29.76,West,270,11.6,12.3,50,0.00,,,0.07,WUHU216HW,2013-07-13 05:14:00,
2013-07-12 23:15:00,63.9,45.4,29.76,West,270,10.7,12.3,51,0.00,,,0.07,WUHU216HW,2013-07-13 05:15:00,
2013-07-12 23:18:00,64.3,44.7,29.76,West,270,10.3,12.3,49,0.00,,,0.07,WUHU216HW,2013-07-13 05:18:00,
2013-07-12 23:19:00,64.4,44.8,29.76,WNW,293,8.1,12.3,49,0.00,,,0.07,WUHU216HW,2013-07-13 05:19:00,
2013-07-12 23:20:00,64.4,44.8,29.76,NW,315,10.3,12.3,49,0.00,,,0.07,WUHU216HW,2013-07-13 05:20:00,
2013-07-12 23:23:00,64.4,44.2,29.76,WNW,293,11.4,12.1,48,0.00,,,0.07,WUHU216HW,2013-07-13 05:23:00,
2013-07-12 23:24:00,64.6,44.4,29.76,West,270,9.2,12.1,48,0.00,,,0.07,WUHU216HW,2013-07-13 05:24:00,
2013-07-12 23:26:00,64.6,45.5,29.76,WNW,293,7.6,12.1,50,0.00,,,0.07,WUHU216HW,2013-07-13 05:26:00,
2013-07-12 23:28:00,64.1,45.0,29.76,West,270,9.6,12.1,50,0.00,,,0.07,WUHU216HW,2013-07-13 05:28:00,
2013-07-12 23:29:00,64.1,45.0,29.76,West,270,10.3,12.1,50,0.00,,,0.07,WUHU216HW,2013-07-13 05:29:00,
2013-07-12 23:30:00,64.1,45.0,29.76,West,270,10.3,12.1,50,0.00,,,0.07,WUHU216HW,2013-07-13 05:30:00,
2013-07-12 23:31:00,63.9,44.9,29.76,West,270,10.7,12.1,50,0.00,,,0.07,WUHU216HW,2013-07-13 05:31:00,
2013-07-12 23:34:00,63.7,45.2,29.76,West,270,10.5,11.6,51,0.00,,,0.07,WUHU216HW,2013-07-13 05:34:00,
2013-07-12 23:35:00,63.5,45.0,29.76,WNW,293,10.1,11.6,51,0.00,,,0.07,WUHU216HW,2013-07-13 05:35:00,
2013-07-12 23:36:00,63.5,45.0,29.76,West,270,8.7,11.6,51,0.00,,,0.07,WUHU216HW,2013-07-13 05:36:00,
2013-07-12 23:37:00,63.5,44.6,29.76,WNW,293,11.2,12.8,50,0.00,,,0.07,WUHU216HW,2013-07-13 05:37:00,
2013-07-12 23:39:00,63.7,44.7,29.76,West,270,9.6,12.8,50,0.00,,,0.07,WUHU216HW,2013-07-13 05:39:00,
2013-07-12 23:40:00,63.9,44.9,29.76,WNW,293,7.8,12.8,50,0.00,,,0.07,WUHU216HW,2013-07-13 05:40:00,
2013-07-12 23:41:00,63.9,44.9,29.76,WNW,293,7.6,12.8,50,0.00,,,0.07,WUHU216HW,2013-07-13 05:41:00,
2013-07-12 23:42:00,63.9,44.3,29.76,West,270,8.1,12.8,49,0.00,,,0.07,WUHU216HW,2013-07-13 05:42:00,
2013-07-12 23:44:00,64.1,43.9,29.76,WNW,293,8.5,12.8,48,0.00,,,0.07,WUHU216HW,2013-07-13 05:44:00,
2013-07-12 23:45:00,64.3,44.0,29.76,NW,315,8.9,12.8,48,0.00,,,0.07,WUHU216HW,2013-07-13 05:45:00,
2013-07-12 23:46:00,64.4,44.8,29.76,WNW,293,8.7,12.8,49,0.00,,,0.07,WUHU216HW,2013-07-13 05:46:00,
2013-07-12 23:47:00,64.3,44.7,29.76,NW,315,7.2,11.4,49,0.00,,,0.07,WUHU216HW,2013-07-13 05:47:00,
2013-07-12 23:50:00,63.7,44.7,29.76,WNW,293,8.7,11.0,50,0.00,,,0.07,WUHU216HW,2013-07-13 05:50:00,
2013-07-12 23:51:00,63.7,44.7,29.76,West,270,9.2,11.0,50,0.00,,,0.07,WUHU216HW,2013-07-13 05:51:00,
2013-07-12 23:52:00,63.7,44.7,29.76,West,270,10.5,10.5,50,0.00,,,0.07,WUHU216HW,2013-07-13 05:52:00,
2013-07-12 23:55:00,63.5,45.0,29.76,West,270,9.2,11.0,51,0.00,,,0.07,WUHU216HW,2013-07-13 05:55:00,
2013-07-12 23:56:00,63.5,45.0,29.76,West,270,10.1,11.0,51,0.00,,,0.07,WUHU216HW,2013-07-13 05:56:00,
2013-07-12 23:57:00,63.4,44.9,29.76,West,270,9.2,11.0,51,0.00,,,0.07,WUHU216HW,2013-07-13 05:57:00,